| time (UTC) | temp F | wind direction | speed MPH | gust MPH | rain 1hr in | rain 24hr in | rain mn in | humidity % | barometer mb |
| 20260902212903 | 95 | 213 | 2.0 | 9.0 | 0.00 | 0.02 | 0.00 | 61 | 1010.3 |
| 20260902212804 | 95 | 213 | 4.0 | 9.0 | 0.00 | 0.02 | 0.00 | 60 | 1010.3 |
| 20260902212702 | 95 | 214 | 4.0 | 9.0 | 0.00 | 0.02 | 0.00 | 60 | 1010.3 |
| 20260902212602 | 95 | 228 | 3.0 | 9.0 | 0.00 | 0.02 | 0.00 | 60 | 1010.4 |
| 20260902212503 | 95 | 196 | 3.0 | 9.0 | 0.00 | 0.02 | 0.00 | 61 | 1010.3 |
| 20260902212403 | 95 | 195 | 4.0 | 9.0 | 0.00 | 0.02 | 0.00 | 60 | 1010.4 |
| 20260902212305 | 95 | 207 | 5.0 | 10.0 | 0.00 | 0.02 | 0.00 | 60 | 1010.3 |
| 20260902212203 | 95 | 223 | 5.0 | 12.0 | 0.00 | 0.02 | 0.00 | 60 | 1010.3 |
| 20260902212103 | 95 | 226 | 5.0 | 12.0 | 0.00 | 0.02 | 0.00 | 60 | 1010.3 |
| 20260902212001 | 95 | 216 | 5.0 | 12.0 | 0.00 | 0.02 | 0.00 | 60 | 1010.3 |
| 20260902211903 | 95 | 209 | 5.0 | 12.0 | 0.00 | 0.02 | 0.00 | 61 | 1010.4 |
| 20260902211802 | 95 | 151 | 3.0 | 12.0 | 0.00 | 0.02 | 0.00 | 61 | 1010.4 |
| 20260902211702 | 94 | 199 | 2.0 | 12.0 | 0.00 | 0.02 | 0.00 | 61 | 1010.4 |
| 20260902211603 | 94 | 207 | 2.0 | 12.0 | 0.00 | 0.02 | 0.00 | 60 | 1010.3 |
| 20260902211501 | 94 | 197 | 4.0 | 12.0 | 0.00 | 0.02 | 0.00 | 60 | 1010.4 |
| 20260902211404 | 94 | 200 | 6.0 | 12.0 | 0.00 | 0.02 | 0.00 | 60 | 1010.4 |
| 20260902211302 | 94 | 244 | 7.0 | 12.0 | 0.00 | 0.02 | 0.00 | 61 | 1010.4 |
| 20260902211203 | 94 | 265 | 7.0 | 11.0 | 0.00 | 0.02 | 0.00 | 61 | 1010.5 |
| 20260902211103 | 94 | 192 | 7.0 | 11.0 | 0.00 | 0.02 | 0.00 | 61 | 1010.4 |
| 20260902211003 | 94 | 178 | 7.0 | 11.0 | 0.00 | 0.02 | 0.00 | 61 | 1010.4 |
| 20260902210904 | 94 | 219 | 3.0 | 9.0 | 0.00 | 0.02 | 0.00 | 61 | 1010.5 |
| 20260902210803 | 94 | 219 | 3.0 | 9.0 | 0.00 | 0.02 | 0.00 | 61 | 1010.5 |
| 20260902210704 | 94 | 219 | 3.0 | 9.0 | 0.00 | 0.02 | 0.00 | 61 | 1010.5 |
| 20260902210604 | 94 | 219 | 3.0 | 12.0 | 0.00 | 0.02 | 0.00 | 61 | 1010.5 |
| 20260902210504 | 94 | 241 | 3.0 | 12.0 | 0.00 | 0.02 | 0.00 | 61 | 1010.6 |
| 20260902210404 | 94 | 206 | 5.0 | 12.0 | 0.00 | 0.02 | 0.00 | 61 | 1010.5 |
| 20260902210302 | 94 | 234 | 7.0 | 12.0 | 0.00 | 0.02 | 0.00 | 60 | 1010.5 |
| 20260902210202 | 94 | 231 | 3.0 | 12.0 | 0.00 | 0.02 | 0.00 | 61 | 1010.6 |
| 20260902210104 | 94 | 231 | 3.0 | 12.0 | 0.00 | 0.02 | 0.00 | 61 | 1010.6 |
| 20260902210003 | 94 | 231 | 3.0 | 12.0 | 0.00 | 0.02 | 0.00 | 61 | 1010.6 |
| 20260902205903 | 94 | 182 | 3.0 | 12.0 | 0.00 | 0.02 | 0.00 | 61 | 1010.5 |
| 20260902205802 | 95 | 168 | 5.0 | 12.0 | 0.00 | 0.02 | 0.00 | 60 | 1010.5 |
| 20260902205703 | 95 | 179 | 6.0 | 12.0 | 0.00 | 0.02 | 0.00 | 60 | 1010.5 |
| 20260902205602 | 95 | 207 | 4.0 | 10.0 | 0.00 | 0.02 | 0.00 | 61 | 1010.5 |
| 20260902205502 | 95 | 196 | 4.0 | 10.0 | 0.00 | 0.02 | 0.00 | 61 | 1010.5 |
| 20260902205403 | 95 | 210 | 6.0 | 10.0 | 0.00 | 0.02 | 0.00 | 61 | 1010.5 |
| 20260902205302 | 95 | 207 | 6.0 | 9.0 | 0.00 | 0.02 | 0.00 | 60 | 1010.6 |
| 20260902205204 | 95 | 213 | 8.0 | 9.0 | 0.00 | 0.02 | 0.00 | 60 | 1010.6 |
| 20260902205103 | 0 | 0.0 | 0.0 | 0.00 | 0.02 | 0.00 | 1010.6 | ||
| 20260902205003 | 0 | 0.0 | 0.0 | 0.00 | 0.02 | 0.00 | 1010.6 | ||
| 20260902204904 | 0 | 0.0 | 0.0 | 0.00 | 0.02 | 0.00 | 1010.7 | ||
| 20260902204803 | 0 | 0.0 | 0.0 | 0.00 | 0.02 | 0.00 | 1010.6 | ||
| 20260902204703 | 0 | 0.0 | 0.0 | 0.00 | 0.02 | 0.00 | 1010.6 | ||
| 20260902204603 | 0 | 0.0 | 0.0 | 0.00 | 0.02 | 0.00 | 1010.7 | ||
| 20260902204504 | 0 | 0.0 | 0.0 | 0.00 | 0.02 | 0.00 | 1010.7 | ||
| 20260902204404 | 0 | 0.0 | 0.0 | 0.00 | 0.02 | 0.00 | 1010.7 | ||
| 20260902204303 | 0 | 0.0 | 0.0 | 0.00 | 0.02 | 0.00 | 1010.6 | ||
| 20260902204204 | 0 | 0.0 | 0.0 | 0.00 | 0.02 | 0.00 | 1010.7 | ||
| 20260902204103 | 0 | 0.0 | 0.0 | 0.00 | 0.02 | 0.00 | 1010.8 | ||
| 20260902204003 | 0 | 0.0 | 0.0 | 0.00 | 0.02 | 0.00 | 1010.6 | ||
| 20260902203903 | 0 | 0.0 | 0.0 | 0.00 | 0.02 | 0.00 | 1010.7 | ||
| 20260902203803 | 95 | 169 | 3.0 | 4.0 | 0.00 | 0.02 | 0.00 | 60 | 1010.8 |
| 20260902203703 | 95 | 169 | 3.0 | 5.0 | 0.00 | 0.02 | 0.00 | 60 | 1010.8 |
| 20260902203603 | 95 | 169 | 3.0 | 5.0 | 0.00 | 0.02 | 0.00 | 60 | 1010.8 |
| 20260902203504 | 95 | 169 | 3.0 | 5.0 | 0.00 | 0.02 | 0.00 | 60 | 1010.8 |
| 20260902203403 | 95 | 169 | 3.0 | 6.0 | 0.00 | 0.02 | 0.00 | 60 | 1010.9 |
| 20260902203304 | 95 | 169 | 3.0 | 6.0 | 0.00 | 0.02 | 0.00 | 60 | 1010.8 |
| 20260902203203 | 95 | 169 | 3.0 | 9.0 | 0.00 | 0.02 | 0.00 | 60 | 1010.9 |
| 20260902203103 | 95 | 169 | 3.0 | 11.0 | 0.00 | 0.02 | 0.00 | 60 | 1010.9 |
| 20260902203004 | 95 | 169 | 3.0 | 12.0 | 0.00 | 0.02 | 0.00 | 60 | 1010.8 |
| 20260902202904 | 95 | 169 | 3.0 | 12.0 | 0.00 | 0.02 | 0.00 | 60 | 1010.9 |
| 20260902202804 | 95 | 154 | 2.0 | 12.0 | 0.00 | 0.02 | 0.00 | 60 | 1010.8 |
| 20260902202701 | 95 | 164 | 2.0 | 12.0 | 0.00 | 0.02 | 0.00 | 61 | 1010.8 |
| 20260902202604 | 95 | 221 | 2.0 | 12.0 | 0.00 | 0.02 | 0.00 | 61 | 1010.9 |
| 20260902202502 | 95 | 221 | 3.0 | 12.0 | 0.00 | 0.02 | 0.00 | 60 | 1011.0 |
| 20260902202402 | 95 | 193 | 5.0 | 12.0 | 0.00 | 0.02 | 0.00 | 60 | 1010.9 |
| 20260902202306 | 95 | 186 | 6.0 | 12.0 | 0.00 | 0.02 | 0.00 | 60 | 1010.9 |
| 20260902202204 | 95 | 192 | 7.0 | 12.0 | 0.00 | 0.02 | 0.00 | 61 | 1010.9 |
| 20260902202102 | 95 | 228 | 8.0 | 12.0 | 0.00 | 0.02 | 0.00 | 60 | 1010.9 |
| 20260902202003 | 96 | 217 | 8.0 | 12.0 | 0.00 | 0.02 | 0.00 | 60 | 1010.9 |
| 20260902201904 | 96 | 193 | 6.0 | 12.0 | 0.00 | 0.02 | 0.00 | 59 | 1011.0 |
| 20260902201804 | 96 | 158 | 5.0 | 9.0 | 0.00 | 0.02 | 0.00 | 59 | 1010.9 |
| 20260902201702 | 96 | 169 | 5.0 | 9.0 | 0.00 | 0.02 | 0.00 | 59 | 1011.0 |
| 20260902201605 | 96 | 173 | 5.0 | 9.0 | 0.00 | 0.02 | 0.00 | 59 | 1010.9 |
| 20260902201502 | 96 | 206 | 3.0 | 9.0 | 0.00 | 0.02 | 0.00 | 60 | 1010.9 |
| 20260902201403 | 96 | 193 | 2.0 | 7.0 | 0.00 | 0.02 | 0.00 | 60 | 1010.9 |
| 20260902201302 | 96 | 196 | 2.0 | 7.0 | 0.00 | 0.02 | 0.00 | 59 | 1011.0 |
| 20260902201202 | 96 | 230 | 3.0 | 7.0 | 0.00 | 0.02 | 0.00 | 59 | 1011.0 |
| 20260902201107 | 96 | 243 | 3.0 | 7.0 | 0.00 | 0.02 | 0.00 | 59 | 1010.9 |
| 20260902201003 | 96 | 241 | 4.0 | 7.0 | 0.00 | 0.02 | 0.00 | 60 | 1011.0 |
| 20260902200904 | 96 | 245 | 6.0 | 7.0 | 0.00 | 0.02 | 0.00 | 60 | 1011.0 |
| 20260902200803 | 0 | 0.0 | 0.0 | 0.00 | 0.02 | 0.00 | 1011.0 | ||
| 20260902200703 | 0 | 0.0 | 0.0 | 0.00 | 0.02 | 0.00 | 1011.0 | ||
| 20260902200603 | 0 | 0.0 | 0.0 | 0.00 | 0.02 | 0.00 | 1011.1 | ||
| 20260902200504 | 0 | 0.0 | 0.0 | 0.00 | 0.02 | 0.00 | 1011.1 | ||
| 20260902200403 | 0 | 0.0 | 0.0 | 0.00 | 0.02 | 0.00 | 1011.1 | ||
| 20260902200303 | 0 | 0.0 | 0.0 | 0.00 | 0.02 | 0.00 | 1011.1 | ||
| 20260902200203 | 95 | 250 | 5.0 | 5.0 | 0.00 | 0.02 | 0.00 | 60 | 1011.1 |
| 20260902200033 | 95 | 250 | 5.0 | 9.0 | 0.00 | 0.02 | 0.00 | 60 | 1011.2 |
| 20260902195932 | 95 | 250 | 5.0 | 9.0 | 0.00 | 0.02 | 0.00 | 60 | 1011.2 |
| 20260902195833 | 95 | 250 | 5.0 | 9.0 | 0.00 | 0.02 | 0.00 | 60 | 1011.1 |
| 20260902195732 | 95 | 250 | 5.0 | 9.0 | 0.00 | 0.02 | 0.00 | 60 | 1011.1 |
| 20260902195633 | 95 | 250 | 5.0 | 9.0 | 0.00 | 0.02 | 0.00 | 60 | 1011.1 |
| 20260902195533 | 95 | 250 | 5.0 | 9.0 | 0.00 | 0.02 | 0.00 | 60 | 1011.2 |
| 20260902195432 | 95 | 250 | 5.0 | 9.0 | 0.00 | 0.02 | 0.00 | 60 | 1011.2 |
| 20260902195331 | 95 | 250 | 5.0 | 9.0 | 0.00 | 0.02 | 0.00 | 60 | 1011.2 |
| 20260902195219 | 95 | 254 | 5.0 | 9.0 | 0.00 | 0.02 | 0.00 | 60 | 1011.3 |
| 20260902195116 | 95 | 207 | 5.0 | 9.0 | 0.00 | 0.02 | 0.00 | 60 | 1011.3 |
| 20260902195016 | 95 | 186 | 4.0 | 11.0 | 0.00 | 0.02 | 0.00 | 60 | 1011.3 |
| 20260902194914 | 95 | 158 | 4.0 | 11.0 | 0.00 | 0.02 | 0.00 | 60 | 1011.3 |
| 20260902194815 | 95 | 138 | 2.0 | 12.0 | 0.00 | 0.02 | 0.00 | 60 | 1011.3 |
| 20260902194716 | 95 | 178 | 0.0 | 13.0 | 0.00 | 0.02 | 0.00 | 61 | 1011.4 |
| 20260902194616 | 95 | 282 | 6.0 | 13.0 | 0.00 | 0.02 | 0.00 | 59 | 1011.4 |
| 20260902194515 | 95 | 282 | 6.0 | 13.0 | 0.00 | 0.02 | 0.00 | 59 | 1011.4 |
| 20260902194415 | 95 | 282 | 6.0 | 13.0 | 0.00 | 0.02 | 0.00 | 59 | 1011.5 |
| 20260902194314 | 95 | 288 | 6.0 | 13.0 | 0.00 | 0.02 | 0.00 | 59 | 1011.5 |
| 20260902194215 | 95 | 271 | 7.0 | 13.0 | 0.00 | 0.02 | 0.00 | 59 | 1011.5 |
| 20260902194115 | 95 | 264 | 7.0 | 13.0 | 0.00 | 0.02 | 0.00 | 59 | 1011.5 |
| 20260902194015 | 95 | 243 | 6.0 | 13.0 | 0.00 | 0.02 | 0.00 | 59 | 1011.5 |
| 20260902193916 | 95 | 248 | 7.0 | 13.0 | 0.00 | 0.02 | 0.00 | 59 | 1011.5 |
| 20260902193814 | 95 | 303 | 7.0 | 13.0 | 0.00 | 0.02 | 0.00 | 59 | 1011.6 |
| 20260902193714 | 95 | 269 | 7.0 | 13.0 | 0.00 | 0.02 | 0.00 | 59 | 1011.6 |
| 20260902193616 | 95 | 279 | 8.0 | 13.0 | 0.00 | 0.02 | 0.00 | 59 | 1011.5 |
| 20260902193514 | 95 | 224 | 6.0 | 10.0 | 0.00 | 0.02 | 0.00 | 59 | 1011.6 |
| 20260902193416 | 95 | 278 | 5.0 | 10.0 | 0.00 | 0.02 | 0.00 | 59 | 1011.6 |
| 20260902193316 | 95 | 261 | 6.0 | 10.0 | 0.00 | 0.02 | 0.00 | 59 | 1011.6 |
| 20260902193216 | 95 | 230 | 6.0 | 10.0 | 0.00 | 0.02 | 0.00 | 59 | 1011.6 |
| 20260902193113 | 95 | 275 | 6.0 | 10.0 | 0.00 | 0.02 | 0.00 | 60 | 1011.6 |
| 20260902193014 | 95 | 262 | 6.0 | 10.0 | 0.00 | 0.02 | 0.00 | 60 | 1011.7 |
| 20260902192914 | 95 | 272 | 6.0 | 10.0 | 0.00 | 0.02 | 0.00 | 60 | 1011.6 |
| 20260902192813 | 95 | 278 | 6.0 | 12.0 | 0.00 | 0.02 | 0.00 | 59 | 1011.7 |
| 20260902192711 | 95 | 274 | 6.0 | 12.0 | 0.00 | 0.02 | 0.00 | 61 | 1011.7 |
| 20260902192609 | 95 | 302 | 5.0 | 13.0 | 0.00 | 0.02 | 0.00 | 60 | 1011.7 |
| 20260902192508 | 95 | 247 | 5.0 | 13.0 | 0.00 | 0.02 | 0.00 | 60 | 1011.7 |
| 20260902192408 | 95 | 228 | 4.0 | 13.0 | 0.00 | 0.02 | 0.00 | 60 | 1011.7 |
| 20260902192307 | 94 | 234 | 4.0 | 13.0 | 0.00 | 0.02 | 0.00 | 60 | 1011.7 |
| 20260902192205 | 94 | 272 | 6.0 | 13.0 | 0.00 | 0.02 | 0.00 | 60 | 1011.7 |
| 20260902192104 | 94 | 266 | 6.0 | 13.0 | 0.00 | 0.02 | 0.00 | 60 | 1011.7 |
| 20260902192003 | 94 | 278 | 6.0 | 13.0 | 0.00 | 0.02 | 0.00 | 60 | 1011.7 |
| 20260902191903 | 94 | 278 | 5.0 | 13.0 | 0.00 | 0.02 | 0.00 | 61 | 1011.7 |
| 20260902191803 | 94 | 237 | 7.0 | 13.0 | 0.00 | 0.02 | 0.00 | 61 | 1011.7 |
| 20260902191702 | 94 | 240 | 7.0 | 13.0 | 0.00 | 0.02 | 0.00 | 61 | 1011.8 |
| 20260902191603 | 94 | 276 | 6.0 | 11.0 | 0.00 | 0.02 | 0.00 | 62 | 1011.8 |
| 20260902191502 | 94 | 288 | 6.0 | 11.0 | 0.00 | 0.02 | 0.00 | 61 | 1011.8 |
| 20260902191402 | 94 | 259 | 6.0 | 11.0 | 0.00 | 0.02 | 0.00 | 61 | 1011.9 |
| 20260902191303 | 94 | 337 | 6.0 | 11.0 | 0.00 | 0.02 | 0.00 | 61 | 1011.8 |
| 20260902191203 | 94 | 285 | 6.0 | 11.0 | 0.00 | 0.02 | 0.00 | 61 | 1011.9 |
| 20260902191103 | 94 | 220 | 6.0 | 11.0 | 0.00 | 0.02 | 0.00 | 61 | 1011.9 |
| 20260902191002 | 94 | 199 | 7.0 | 11.0 | 0.00 | 0.02 | 0.00 | 61 | 1011.9 |
| 20260902190902 | 94 | 259 | 6.0 | 10.0 | 0.00 | 0.02 | 0.00 | 61 | 1011.9 |
| 20260902190803 | 94 | 262 | 4.0 | 10.0 | 0.00 | 0.02 | 0.00 | 62 | 1011.8 |
| 20260902190703 | 94 | 221 | 4.0 | 12.0 | 0.00 | 0.02 | 0.00 | 62 | 1011.8 |
| 20260902190603 | 94 | 264 | 5.0 | 12.0 | 0.00 | 0.02 | 0.00 | 62 | 1011.8 |
| 20260902190502 | 94 | 327 | 5.0 | 12.0 | 0.00 | 0.02 | 0.00 | 63 | 1011.8 |
| 20260902190403 | 94 | 243 | 5.0 | 12.0 | 0.00 | 0.02 | 0.00 | 63 | 1011.8 |
| 20260902190303 | 94 | 243 | 5.0 | 12.0 | 0.00 | 0.02 | 0.00 | 63 | 1011.8 |
| 20260902190203 | 94 | 243 | 5.0 | 12.0 | 0.00 | 0.02 | 0.00 | 63 | 1011.7 |
| 20260902190004 | 93 | 271 | 6.0 | 12.0 | 0.00 | 0.02 | 0.00 | 63 | 1011.8 |
| 20260902185902 | 93 | 247 | 7.0 | 12.0 | 0.00 | 0.02 | 0.00 | 63 | 1011.8 |
| 20260902185805 | 93 | 266 | 7.0 | 12.0 | 0.00 | 0.02 | 0.00 | 63 | 1011.8 |
| 20260902185704 | 93 | 216 | 6.0 | 14.0 | 0.00 | 0.02 | 0.00 | 63 | 1011.8 |
| 20260902185605 | 93 | 238 | 4.0 | 14.0 | 0.00 | 0.02 | 0.00 | 64 | 1011.9 |
| 20260902185503 | 93 | 220 | 4.0 | 14.0 | 0.00 | 0.02 | 0.00 | 64 | 1011.9 |
| 20260902185403 | 93 | 234 | 7.0 | 14.0 | 0.00 | 0.02 | 0.00 | 64 | 1011.9 |
| 20260902185306 | 93 | 234 | 7.0 | 14.0 | 0.00 | 0.02 | 0.00 | 64 | 1011.9 |
| 20260902185204 | 93 | 234 | 7.0 | 14.0 | 0.00 | 0.02 | 0.00 | 64 | 1012.0 |
| 20260902185103 | 93 | 234 | 7.0 | 14.0 | 0.00 | 0.02 | 0.00 | 64 | 1011.9 |
| 20260902184937 | 93 | 259 | 8.0 | 14.0 | 0.00 | 0.02 | 0.00 | 64 | 1012.0 |
| 20260902184834 | 93 | 278 | 9.0 | 14.0 | 0.00 | 0.02 | 0.00 | 64 | 1012.0 |
| 20260902184732 | 93 | 265 | 8.0 | 14.0 | 0.00 | 0.02 | 0.00 | 64 | 1012.1 |
| 20260902184632 | 93 | 254 | 7.0 | 14.0 | 0.00 | 0.02 | 0.00 | 64 | 1012.0 |
| 20260902184533 | 93 | 257 | 8.0 | 14.0 | 0.00 | 0.02 | 0.00 | 63 | 1012.1 |
| 20260902184432 | 93 | 257 | 9.0 | 14.0 | 0.00 | 0.02 | 0.00 | 64 | 1012.0 |
| 20260902184332 | 93 | 257 | 8.0 | 14.0 | 0.00 | 0.02 | 0.00 | 64 | 1012.1 |
| 20260902184233 | 93 | 214 | 5.0 | 12.0 | 0.00 | 0.02 | 0.00 | 64 | 1012.1 |
| 20260902184131 | 93 | 257 | 5.0 | 10.0 | 0.00 | 0.02 | 0.00 | 64 | 1012.1 |
| 20260902184032 | 93 | 266 | 6.0 | 10.0 | 0.00 | 0.02 | 0.00 | 64 | 1012.2 |
| 20260902183933 | 93 | 266 | 6.0 | 10.0 | 0.00 | 0.02 | 0.00 | 64 | 1012.2 |
| 20260902183832 | 93 | 266 | 6.0 | 10.0 | 0.00 | 0.02 | 0.00 | 64 | 1012.2 |
| 20260902183732 | 93 | 266 | 6.0 | 10.0 | 0.00 | 0.02 | 0.00 | 64 | 1012.3 |
| 20260902183634 | 93 | 296 | 6.0 | 10.0 | 0.00 | 0.02 | 0.00 | 64 | 1012.3 |
| 20260902183533 | 93 | 283 | 5.0 | 9.0 | 0.00 | 0.02 | 0.00 | 64 | 1012.3 |
| 20260902183422 | 93 | 288 | 5.0 | 9.0 | 0.00 | 0.02 | 0.00 | 64 | 1012.3 |
| 20260902183320 | 93 | 204 | 3.0 | 10.0 | 0.00 | 0.02 | 0.00 | 63 | 1012.3 |
| 20260902183217 | 93 | 209 | 3.0 | 10.0 | 0.00 | 0.02 | 0.00 | 64 | 1012.3 |
| 20260902183116 | 93 | 230 | 4.0 | 10.0 | 0.00 | 0.02 | 0.00 | 64 | 1012.4 |
| 20260902183015 | 93 | 269 | 5.0 | 10.0 | 0.00 | 0.02 | 0.00 | 64 | 1012.4 |
| 20260902182915 | 93 | 226 | 4.0 | 10.0 | 0.00 | 0.02 | 0.00 | 64 | 1012.5 |
| 20260902182812 | 93 | 266 | 3.0 | 10.0 | 0.00 | 0.02 | 0.00 | 64 | 1012.4 |
| 20260902182712 | 93 | 286 | 4.0 | 10.0 | 0.00 | 0.02 | 0.00 | 64 | 1012.4 |
| 20260902182612 | 94 | 295 | 4.0 | 10.0 | 0.00 | 0.02 | 0.00 | 65 | 1012.4 |
| 20260902182512 | 93 | 276 | 5.0 | 12.0 | 0.00 | 0.02 | 0.00 | 65 | 1012.6 |
| 20260902182415 | 93 | 303 | 3.0 | 12.0 | 0.00 | 0.02 | 0.00 | 65 | 1012.5 |
| 20260902182313 | 93 | 223 | 0.0 | 12.0 | 0.00 | 0.02 | 0.00 | 65 | 1012.5 |
| 20260902182214 | 93 | 223 | 2.0 | 14.0 | 0.00 | 0.02 | 0.00 | 65 | 1012.5 |
| 20260902182112 | 93 | 223 | 3.0 | 14.0 | 0.00 | 0.02 | 0.00 | 66 | 1012.5 |
| 20260902182015 | 93 | 310 | 5.0 | 14.0 | 0.00 | 0.02 | 0.00 | 66 | 1012.6 |
| 20260902181913 | 92 | 233 | 6.0 | 14.0 | 0.00 | 0.02 | 0.00 | 65 | 1012.6 |
| 20260902181813 | 92 | 276 | 4.0 | 14.0 | 0.00 | 0.02 | 0.00 | 65 | 1012.6 |
| 20260902181712 | 93 | 286 | 5.0 | 14.0 | 0.00 | 0.02 | 0.00 | 64 | 1012.7 |
| 20260902181613 | 93 | 269 | 6.0 | 14.0 | 0.00 | 0.02 | 0.00 | 65 | 1012.7 |
| 20260902181515 | 93 | 250 | 7.0 | 14.0 | 0.00 | 0.02 | 0.00 | 65 | 1012.7 |
| 20260902181412 | 93 | 258 | 7.0 | 14.0 | 0.00 | 0.02 | 0.00 | 65 | 1012.8 |
| 20260902181313 | 93 | 259 | 7.0 | 15.0 | 0.00 | 0.02 | 0.00 | 65 | 1012.8 |
| 20260902181212 | 92 | 274 | 6.0 | 15.0 | 0.00 | 0.02 | 0.00 | 66 | 1012.8 |
| 20260902181114 | 92 | 293 | 7.0 | 15.0 | 0.00 | 0.02 | 0.00 | 66 | 1012.8 |
| 20260902181013 | 92 | 305 | 7.0 | 15.0 | 0.00 | 0.02 | 0.00 | 66 | 1012.9 |
| 20260902180914 | 92 | 269 | 8.0 | 15.0 | 0.00 | 0.02 | 0.00 | 67 | 1012.8 |
| 20260902180813 | 92 | 275 | 8.0 | 15.0 | 0.00 | 0.02 | 0.00 | 67 | 1012.9 |
| 20260902180718 | 92 | 275 | 8.0 | 15.0 | 0.00 | 0.02 | 0.00 | 67 | 1012.9 |
| 20260902180614 | 92 | 275 | 9.0 | 15.0 | 0.00 | 0.02 | 0.00 | 66 | 1012.9 |
| 20260902180513 | 92 | 238 | 9.0 | 15.0 | 0.00 | 0.02 | 0.00 | 66 | 1012.8 |
| 20260902180413 | 92 | 282 | 8.0 | 15.0 | 0.00 | 0.02 | 0.00 | 66 | 1012.9 |
| 20260902180312 | 92 | 275 | 6.0 | 13.0 | 0.00 | 0.02 | 0.00 | 66 | 1012.9 |
| 20260902180212 | 92 | 248 | 7.0 | 13.0 | 0.00 | 0.02 | 0.00 | 67 | 1012.9 |
| 20260902180113 | 92 | 271 | 7.0 | 13.0 | 0.00 | 0.02 | 0.00 | 67 | 1013.0 |
| 20260902180012 | 92 | 261 | 6.0 | 13.0 | 0.00 | 0.02 | 0.00 | 68 | 1013.0 |
| 20260902175913 | 92 | 268 | 7.0 | 13.0 | 0.00 | 0.02 | 0.00 | 68 | 1013.0 |
| 20260902175813 | 92 | 278 | 8.0 | 13.0 | 0.00 | 0.02 | 0.00 | 69 | 1013.0 |
| 20260902175713 | 91 | 259 | 6.0 | 13.0 | 0.00 | 0.02 | 0.00 | 69 | 1013.0 |
| 20260902175612 | 91 | 306 | 7.0 | 12.0 | 0.00 | 0.02 | 0.00 | 69 | 1013.1 |
| 20260902175512 | 91 | 298 | 8.0 | 12.0 | 0.00 | 0.02 | 0.00 | 68 | 1013.1 |
| 20260902175413 | 91 | 303 | 6.0 | 11.0 | 0.00 | 0.02 | 0.00 | 68 | 1013.0 |
| 20260902175312 | 91 | 254 | 6.0 | 11.0 | 0.00 | 0.02 | 0.00 | 69 | 1013.1 |
| 20260902175213 | 91 | 269 | 8.0 | 11.0 | 0.00 | 0.02 | 0.00 | 69 | 1013.2 |
| 20260902175112 | 91 | 257 | 8.0 | 11.0 | 0.00 | 0.02 | 0.00 | 70 | 1013.1 |
| 20260902175013 | 90 | 275 | 5.0 | 11.0 | 0.00 | 0.02 | 0.00 | 70 | 1013.1 |
| 20260902174913 | 90 | 275 | 5.0 | 11.0 | 0.00 | 0.02 | 0.00 | 70 | 1013.2 |
| 20260902174812 | 90 | 275 | 5.0 | 11.0 | 0.00 | 0.02 | 0.00 | 70 | 1013.2 |
| 20260902174711 | 90 | 275 | 5.0 | 11.0 | 0.00 | 0.02 | 0.00 | 70 | 1013.3 |
| 20260902174612 | 90 | 254 | 5.0 | 11.0 | 0.00 | 0.02 | 0.00 | 71 | 1013.2 |
| 20260902174513 | 90 | 269 | 7.0 | 11.0 | 0.00 | 0.02 | 0.00 | 71 | 1013.2 |
| 20260902174412 | 90 | 285 | 8.0 | 11.0 | 0.00 | 0.02 | 0.00 | 71 | 1013.3 |
| 20260902174312 | 90 | 285 | 7.0 | 10.0 | 0.00 | 0.02 | 0.00 | 71 | 1013.3 |
| 20260902174212 | 90 | 286 | 7.0 | 10.0 | 0.00 | 0.02 | 0.00 | 70 | 1013.3 |
| 20260902174111 | 90 | 259 | 6.0 | 11.0 | 0.00 | 0.02 | 0.00 | 71 | 1013.4 |
| 20260902174012 | 90 | 281 | 4.0 | 11.0 | 0.00 | 0.02 | 0.00 | 71 | 1013.4 |
| 20260902173911 | 90 | 248 | 4.0 | 11.0 | 0.00 | 0.02 | 0.00 | 71 | 1013.3 |
| 20260902173813 | 90 | 276 | 5.0 | 11.0 | 0.00 | 0.02 | 0.00 | 71 | 1013.4 |
| 20260902173711 | 90 | 288 | 5.0 | 11.0 | 0.00 | 0.02 | 0.00 | 71 | 1013.4 |
| 20260902173611 | 90 | 299 | 6.0 | 11.0 | 0.00 | 0.02 | 0.00 | 71 | 1013.4 |
| 20260902173513 | 90 | 285 | 6.0 | 11.0 | 0.00 | 0.02 | 0.00 | 71 | 1013.5 |
| 20260902173415 | 90 | 324 | 7.0 | 11.0 | 0.00 | 0.02 | 0.00 | 71 | 1013.5 |
| 20260902173311 | 90 | 264 | 7.0 | 11.0 | 0.00 | 0.02 | 0.00 | 71 | 1013.5 |
| 20260902173211 | 90 | 286 | 7.0 | 11.0 | 0.00 | 0.02 | 0.00 | 72 | 1013.5 |
| 20260902173112 | 90 | 261 | 6.0 | 9.0 | 0.00 | 0.02 | 0.00 | 71 | 1013.5 |
| 20260902173013 | 90 | 261 | 6.0 | 9.0 | 0.00 | 0.02 | 0.00 | 71 | 1013.5 |
| 20260902172912 | 90 | 261 | 6.0 | 11.0 | 0.00 | 0.02 | 0.00 | 71 | 1013.6 |
| 20260902172813 | 90 | 261 | 6.0 | 11.0 | 0.00 | 0.02 | 0.00 | 71 | 1013.6 |
| 20260902172711 | 90 | 252 | 6.0 | 11.0 | 0.00 | 0.02 | 0.00 | 72 | 1013.6 |
| 20260902172612 | 90 | 276 | 6.0 | 11.0 | 0.00 | 0.02 | 0.00 | 72 | 1013.6 |
| 20260902172512 | 90 | 257 | 5.0 | 11.0 | 0.00 | 0.02 | 0.00 | 72 | 1013.6 |
| 20260902172411 | 90 | 268 | 5.0 | 11.0 | 0.00 | 0.02 | 0.00 | 72 | 1013.7 |
| 20260902172311 | 89 | 293 | 5.0 | 11.0 | 0.00 | 0.02 | 0.00 | 73 | 1013.7 |
| 20260902172211 | 89 | 261 | 5.0 | 11.0 | 0.00 | 0.02 | 0.00 | 73 | 1013.7 |
| 20260902172112 | 89 | 252 | 6.0 | 11.0 | 0.00 | 0.02 | 0.00 | 73 | 1013.6 |
| 20260902172010 | 89 | 295 | 7.0 | 11.0 | 0.00 | 0.02 | 0.00 | 72 | 1013.7 |
| 20260902171910 | 89 | 276 | 8.0 | 11.0 | 0.00 | 0.02 | 0.00 | 72 | 1013.7 |
| 20260902171813 | 89 | 281 | 7.0 | 11.0 | 0.00 | 0.02 | 0.00 | 72 | 1013.7 |
| 20260902171712 | 89 | 268 | 6.0 | 10.0 | 0.00 | 0.02 | 0.00 | 72 | 1013.7 |
| 20260902171612 | 89 | 264 | 5.0 | 10.0 | 0.00 | 0.02 | 0.00 | 72 | 1013.8 |
| 20260902171512 | 90 | 281 | 4.0 | 14.0 | 0.00 | 0.02 | 0.00 | 73 | 1013.7 |
| 20260902171411 | 89 | 269 | 2.0 | 14.0 | 0.00 | 0.02 | 0.00 | 74 | 1013.7 |
| 20260902171312 | 89 | 250 | 2.0 | 14.0 | 0.00 | 0.02 | 0.00 | 74 | 1013.7 |
| 20260902171208 | 89 | 255 | 2.0 | 14.0 | 0.00 | 0.02 | 0.00 | 73 | 1013.8 |
| 20260902171103 | 89 | 271 | 6.0 | 14.0 | 0.00 | 0.02 | 0.00 | 73 | 1013.8 |
| 20260902171004 | 89 | 271 | 6.0 | 14.0 | 0.00 | 0.02 | 0.00 | 73 | 1013.8 |
| 20260902170904 | 89 | 271 | 6.0 | 14.0 | 0.00 | 0.02 | 0.00 | 73 | 1013.8 |
| 20260902170803 | 89 | 261 | 7.0 | 14.0 | 0.00 | 0.02 | 0.00 | 73 | 1013.9 |
| 20260902170703 | 89 | 296 | 7.0 | 14.0 | 0.00 | 0.02 | 0.00 | 73 | 1014.0 |
| 20260902170602 | 89 | 313 | 6.0 | 14.0 | 0.00 | 0.02 | 0.00 | 74 | 1013.9 |
| 20260902170505 | 89 | 292 | 7.0 | 11.0 | 0.00 | 0.02 | 0.00 | 74 | 1013.9 |
| 20260902170402 | 89 | 285 | 7.0 | 11.0 | 0.00 | 0.02 | 0.00 | 73 | 1013.9 |
| 20260902170302 | 89 | 271 | 8.0 | 11.0 | 0.00 | 0.02 | 0.00 | 73 | 1013.9 |
| 20260902170203 | 89 | 247 | 9.0 | 11.0 | 0.00 | 0.02 | 0.00 | 73 | 1014.0 |
| 20260902170035 | 89 | 317 | 7.0 | 14.0 | 0.00 | 0.02 | 0.00 | 73 | 1014.0 |
| 20260902165933 | 89 | 317 | 7.0 | 14.0 | 0.00 | 0.02 | 0.00 | 73 | 1014.0 |
| 20260902165831 | 89 | 272 | 6.0 | 14.0 | 0.00 | 0.02 | 0.00 | 73 | 1014.0 |
| 20260902165733 | 89 | 248 | 5.0 | 14.0 | 0.00 | 0.02 | 0.00 | 73 | 1014.0 |
| 20260902165632 | 89 | 214 | 5.0 | 14.0 | 0.00 | 0.02 | 0.00 | 73 | 1014.0 |
| 20260902165531 | 89 | 262 | 6.0 | 14.0 | 0.00 | 0.02 | 0.00 | 73 | 1014.0 |
| 20260902165434 | 89 | 240 | 7.0 | 14.0 | 0.00 | 0.02 | 0.00 | 73 | 1014.0 |
| 20260902165331 | 89 | 237 | 7.0 | 14.0 | 0.00 | 0.02 | 0.00 | 73 | 1014.0 |
| 20260902165231 | 89 | 275 | 8.0 | 14.0 | 0.00 | 0.02 | 0.00 | 73 | 1014.0 |
| 20260902165131 | 89 | 300 | 9.0 | 14.0 | 0.00 | 0.02 | 0.00 | 74 | 1014.0 |
| 20260902165033 | 89 | 265 | 6.0 | 14.0 | 0.00 | 0.02 | 0.00 | 74 | 1014.0 |
| 20260902164931 | 89 | 214 | 6.0 | 14.0 | 0.00 | 0.02 | 0.00 | 75 | 1014.0 |
| 20260902164833 | 89 | 299 | 7.0 | 14.0 | 0.00 | 0.02 | 0.00 | 74 | 1014.0 |
| 20260902164732 | 89 | 274 | 8.0 | 14.0 | 0.00 | 0.02 | 0.00 | 74 | 1014.0 |
| 20260902164632 | 89 | 230 | 7.0 | 14.0 | 0.00 | 0.02 | 0.00 | 74 | 1014.0 |
| 20260902164532 | 89 | 258 | 7.0 | 14.0 | 0.00 | 0.02 | 0.00 | 74 | 1014.0 |
| 20260902164431 | 89 | 305 | 8.0 | 14.0 | 0.00 | 0.02 | 0.00 | 74 | 1014.0 |
| 20260902164331 | 89 | 274 | 9.0 | 14.0 | 0.00 | 0.02 | 0.00 | 75 | 1014.0 |
| 20260902164232 | 89 | 244 | 9.0 | 14.0 | 0.00 | 0.02 | 0.00 | 75 | 1014.1 |
| 20260902164133 | 89 | 227 | 8.0 | 13.0 | 0.00 | 0.02 | 0.00 | 76 | 1014.1 |
| 20260902164032 | 89 | 278 | 6.0 | 13.0 | 0.00 | 0.02 | 0.00 | 76 | 1014.1 |
| 20260902163931 | 89 | 257 | 5.0 | 13.0 | 0.00 | 0.02 | 0.00 | 76 | 1014.1 |
| 20260902163832 | 88 | 230 | 9.0 | 13.0 | 0.00 | 0.02 | 0.00 | 76 | 1014.0 |
| 20260902163732 | 88 | 230 | 9.0 | 13.0 | 0.00 | 0.02 | 0.00 | 76 | 1014.1 |
| 20260902163633 | 88 | 230 | 9.0 | 13.0 | 0.00 | 0.02 | 0.00 | 76 | 1014.1 |
| 20260902163532 | 88 | 230 | 9.0 | 13.0 | 0.00 | 0.02 | 0.00 | 76 | 1014.1 |
| 20260902163431 | 88 | 241 | 9.0 | 13.0 | 0.00 | 0.02 | 0.00 | 77 | 1014.2 |
| 20260902163333 | 88 | 265 | 6.0 | 13.0 | 0.00 | 0.02 | 0.00 | 77 | 1014.2 |
| 20260902163232 | 88 | 261 | 5.0 | 13.0 | 0.00 | 0.02 | 0.00 | 77 | 1014.1 |
| 20260902163132 | 88 | 276 | 8.0 | 13.0 | 0.00 | 0.02 | 0.00 | 77 | 1014.2 |
| 20260902163031 | 88 | 264 | 9.0 | 13.0 | 0.00 | 0.02 | 0.00 | 77 | 1014.1 |
| 20260902162927 | 88 | 234 | 8.0 | 13.0 | 0.00 | 0.02 | 0.00 | 77 | 1014.2 |
| 20260902162829 | 88 | 261 | 9.0 | 13.0 | 0.00 | 0.02 | 0.00 | 77 | 1014.1 |
| 20260902162725 | 88 | 286 | 8.0 | 13.0 | 0.00 | 0.02 | 0.00 | 77 | 1014.2 |
| 20260902162623 | 88 | 248 | 8.0 | 13.0 | 0.00 | 0.02 | 0.00 | 77 | 1014.1 |
| 20260902162519 | 88 | 268 | 7.0 | 12.0 | 0.00 | 0.02 | 0.00 | 77 | 1014.1 |
| 20260902162418 | 88 | 286 | 7.0 | 12.0 | 0.00 | 0.02 | 0.00 | 78 | 1014.2 |
| 20260902162313 | 87 | 321 | 7.0 | 12.0 | 0.00 | 0.02 | 0.00 | 78 | 1014.2 |
| 20260902162213 | 87 | 227 | 7.0 | 12.0 | 0.00 | 0.02 | 0.00 | 79 | 1014.1 |
| 20260902162110 | 87 | 298 | 7.0 | 12.0 | 0.00 | 0.02 | 0.00 | 79 | 1014.2 |
| 20260902162009 | 87 | 285 | 7.0 | 12.0 | 0.00 | 0.02 | 0.00 | 79 | 1014.2 |
| 20260902161910 | 87 | 265 | 7.0 | 12.0 | 0.00 | 0.02 | 0.00 | 79 | 1014.2 |
| 20260902161809 | 87 | 295 | 8.0 | 12.0 | 0.00 | 0.02 | 0.00 | 79 | 1014.2 |
| 20260902161712 | 87 | 259 | 8.0 | 13.0 | 0.00 | 0.02 | 0.00 | 79 | 1014.2 |
| 20260902161610 | 87 | 295 | 8.0 | 13.0 | 0.00 | 0.02 | 0.00 | 80 | 1014.2 |
| 20260902161511 | 87 | 319 | 8.0 | 15.0 | 0.00 | 0.02 | 0.00 | 80 | 1014.3 |
| 20260902161410 | 87 | 265 | 7.0 | 15.0 | 0.00 | 0.02 | 0.00 | 80 | 1014.2 |
| 20260902161311 | 86 | 261 | 8.0 | 16.0 | 0.00 | 0.02 | 0.00 | 80 | 1014.2 |
| 20260902161211 | 86 | 306 | 7.0 | 16.0 | 0.00 | 0.02 | 0.00 | 80 | 1014.3 |
| 20260902161109 | 86 | 265 | 7.0 | 16.0 | 0.00 | 0.02 | 0.00 | 80 | 1014.2 |
| 20260902161010 | 86 | 275 | 8.0 | 16.0 | 0.00 | 0.02 | 0.00 | 80 | 1014.2 |
| 20260902160911 | 86 | 245 | 8.0 | 16.0 | 0.00 | 0.02 | 0.00 | 80 | 1014.2 |
| 20260902160811 | 86 | 250 | 9.0 | 16.0 | 0.00 | 0.02 | 0.00 | 80 | 1014.2 |
| 20260902160711 | 86 | 290 | 10.0 | 16.0 | 0.00 | 0.02 | 0.00 | 80 | 1014.2 |
| 20260902160610 | 86 | 264 | 11.0 | 16.0 | 0.00 | 0.02 | 0.00 | 80 | 1014.3 |
| 20260902160509 | 86 | 248 | 9.0 | 16.0 | 0.00 | 0.02 | 0.00 | 80 | 1014.2 |
| 20260902160409 | 86 | 286 | 7.0 | 16.0 | 0.00 | 0.02 | 0.00 | 81 | 1014.3 |
| 20260902160310 | 86 | 243 | 6.0 | 13.0 | 0.00 | 0.02 | 0.00 | 81 | 1014.3 |
| 20260902160209 | 86 | 244 | 7.0 | 13.0 | 0.00 | 0.02 | 0.00 | 81 | 1014.2 |
| 20260902160110 | 86 | 266 | 9.0 | 13.0 | 0.00 | 0.02 | 0.00 | 81 | 1014.2 |
| 20260902160011 | 86 | 266 | 9.0 | 13.0 | 0.00 | 0.02 | 0.00 | 81 | 1014.3 |
| 20260902155910 | 86 | 266 | 9.0 | 13.0 | 0.00 | 0.02 | 0.00 | 81 | 1014.3 |
| 20260902155809 | 86 | 266 | 8.0 | 13.0 | 0.00 | 0.02 | 0.00 | 81 | 1014.2 |
| 20260902155710 | 86 | 224 | 6.0 | 13.0 | 0.00 | 0.02 | 0.00 | 81 | 1014.3 |
| 20260902155608 | 86 | 285 | 5.0 | 12.0 | 0.00 | 0.02 | 0.00 | 81 | 1014.2 |
| 20260902155509 | 86 | 281 | 7.0 | 12.0 | 0.00 | 0.02 | 0.00 | 81 | 1014.2 |
| 20260902155410 | 86 | 238 | 8.0 | 12.0 | 0.00 | 0.02 | 0.00 | 81 | 1014.3 |
| 20260902155310 | 85 | 0 | 7.0 | 12.0 | 0.00 | 0.02 | 0.00 | 82 | 1014.3 |
| 20260902155210 | 85 | 0 | 7.0 | 13.0 | 0.00 | 0.02 | 0.00 | 82 | 1014.2 |
| 20260902155110 | 85 | 0 | 7.0 | 13.0 | 0.00 | 0.02 | 0.00 | 82 | 1014.2 |
| 20260902155010 | 85 | 0 | 7.0 | 13.0 | 0.00 | 0.02 | 0.00 | 82 | 1014.1 |
| 20260902154909 | 85 | 274 | 7.0 | 13.0 | 0.00 | 0.02 | 0.00 | 82 | 1014.2 |
| 20260902154810 | 85 | 279 | 8.0 | 13.0 | 0.00 | 0.02 | 0.00 | 83 | 1014.1 |
| 20260902154710 | 85 | 274 | 8.0 | 13.0 | 0.00 | 0.02 | 0.00 | 83 | 1014.2 |
| 20260902154608 | 85 | 272 | 7.0 | 13.0 | 0.00 | 0.02 | 0.00 | 83 | 1014.2 |
| 20260902154509 | 85 | 282 | 8.0 | 13.0 | 0.00 | 0.02 | 0.00 | 83 | 1014.2 |
| 20260902154411 | 85 | 274 | 9.0 | 13.0 | 0.00 | 0.02 | 0.00 | 83 | 1014.2 |
| 20260902154309 | 85 | 317 | 9.0 | 13.0 | 0.00 | 0.02 | 0.00 | 83 | 1014.2 |
| 20260902154209 | 85 | 259 | 7.0 | 13.0 | 0.00 | 0.02 | 0.00 | 83 | 1014.1 |
| 20260902154110 | 85 | 334 | 6.0 | 13.0 | 0.00 | 0.02 | 0.00 | 83 | 1014.2 |
| 20260902154010 | 85 | 298 | 9.0 | 13.0 | 0.00 | 0.02 | 0.00 | 83 | 1014.2 |
| 20260902153909 | 85 | 298 | 9.0 | 13.0 | 0.00 | 0.02 | 0.00 | 83 | 1014.1 |
| 20260902153810 | 85 | 298 | 9.0 | 13.0 | 0.00 | 0.02 | 0.00 | 83 | 1014.2 |
| 20260902153710 | 85 | 298 | 9.0 | 13.0 | 0.00 | 0.02 | 0.00 | 83 | 1014.1 |
| 20260902153613 | 85 | 288 | 8.0 | 13.0 | 0.00 | 0.02 | 0.00 | 83 | 1014.2 |
| 20260902153508 | 85 | 319 | 8.0 | 12.0 | 0.00 | 0.02 | 0.00 | 83 | 1014.1 |
| 20260902153409 | 85 | 262 | 9.0 | 12.0 | 0.00 | 0.02 | 0.00 | 83 | 1014.1 |
| 20260902153310 | 85 | 276 | 7.0 | 12.0 | 0.00 | 0.02 | 0.00 | 84 | 1014.2 |
| 20260902153210 | 85 | 276 | 7.0 | 12.0 | 0.00 | 0.02 | 0.00 | 84 | 1014.0 |
| 20260902153109 | 85 | 276 | 7.0 | 12.0 | 0.00 | 0.02 | 0.00 | 84 | 1014.1 |
| 20260902153010 | 85 | 264 | 7.0 | 12.0 | 0.00 | 0.02 | 0.00 | 84 | 1014.1 |
| 20260902152909 | 85 | 283 | 8.0 | 12.0 | 0.00 | 0.02 | 0.00 | 84 | 1014.1 |
| 20260902152808 | 85 | 257 | 8.0 | 12.0 | 0.00 | 0.02 | 0.00 | 84 | 1014.1 |
| 20260902152710 | 85 | 283 | 8.0 | 12.0 | 0.00 | 0.02 | 0.00 | 84 | 1014.1 |
| 20260902152608 | 85 | 245 | 8.0 | 12.0 | 0.00 | 0.02 | 0.00 | 84 | 1014.0 |
| 20260902152511 | 85 | 292 | 9.0 | 12.0 | 0.00 | 0.02 | 0.00 | 84 | 1014.1 |
| 20260902152409 | 85 | 279 | 4.0 | 12.0 | 0.00 | 0.02 | 0.00 | 84 | 1014.1 |
| 20260902152311 | 85 | 279 | 4.0 | 12.0 | 0.00 | 0.02 | 0.00 | 84 | 1014.0 |
| 20260902152209 | 85 | 279 | 4.0 | 12.0 | 0.00 | 0.02 | 0.00 | 84 | 1014.0 |
| 20260902152110 | 85 | 257 | 5.0 | 12.0 | 0.00 | 0.02 | 0.00 | 84 | 1013.9 |
| 20260902152009 | 85 | 282 | 6.0 | 12.0 | 0.00 | 0.02 | 0.00 | 84 | 1013.9 |
| 20260902151908 | 85 | 276 | 8.0 | 13.0 | 0.00 | 0.02 | 0.00 | 84 | 1014.0 |
| 20260902151810 | 85 | 285 | 7.0 | 13.0 | 0.00 | 0.02 | 0.00 | 84 | 1014.0 |
| 20260902151710 | 85 | 259 | 4.0 | 13.0 | 0.00 | 0.02 | 0.00 | 85 | 1013.9 |
| 20260902151610 | 84 | 251 | 6.0 | 13.0 | 0.00 | 0.02 | 0.00 | 85 | 1013.9 |
| 20260902151509 | 84 | 251 | 6.0 | 13.0 | 0.00 | 0.02 | 0.00 | 85 | 1013.9 |
| 20260902151411 | 84 | 251 | 6.0 | 13.0 | 0.00 | 0.02 | 0.00 | 85 | 1013.9 |
| 20260902151310 | 84 | 250 | 7.0 | 13.0 | 0.00 | 0.02 | 0.00 | 85 | 1014.0 |
| 20260902151209 | 84 | 257 | 8.0 | 13.0 | 0.00 | 0.02 | 0.00 | 85 | 1013.9 |
| 20260902151108 | 84 | 266 | 8.0 | 13.0 | 0.00 | 0.02 | 0.00 | 85 | 1013.9 |
| 20260902151008 | 84 | 212 | 7.0 | 13.0 | 0.00 | 0.02 | 0.00 | 85 | 1014.0 |
| 20260902150910 | 84 | 299 | 7.0 | 13.0 | 0.00 | 0.02 | 0.00 | 85 | 1013.9 |
| 20260902150809 | 84 | 279 | 8.0 | 13.0 | 0.00 | 0.02 | 0.00 | 85 | 1014.0 |
| 20260902150709 | 84 | 283 | 9.0 | 13.0 | 0.00 | 0.02 | 0.00 | 85 | 1013.9 |
| 20260902150608 | 84 | 286 | 7.0 | 11.0 | 0.00 | 0.02 | 0.00 | 85 | 1014.0 |
| 20260902150508 | 84 | 310 | 5.0 | 12.0 | 0.00 | 0.02 | 0.00 | 86 | 1013.9 |
| 20260902150409 | 84 | 327 | 4.0 | 13.0 | 0.00 | 0.02 | 0.00 | 86 | 1013.9 |
| 20260902150309 | 84 | 0 | 5.0 | 13.0 | 0.00 | 0.02 | 0.00 | 86 | 1013.9 |
| 20260902150210 | 84 | 0 | 5.0 | 13.0 | 0.00 | 0.02 | 0.00 | 86 | 1014.0 |
| 20260902150109 | 84 | 0 | 5.0 | 14.0 | 0.00 | 0.02 | 0.00 | 86 | 1014.0 |
| 20260902150009 | 84 | 0 | 5.0 | 14.0 | 0.00 | 0.02 | 0.00 | 86 | 1013.9 |
| 20260902145910 | 84 | 0 | 5.0 | 14.0 | 0.00 | 0.02 | 0.00 | 86 | 1014.0 |
| 20260902145807 | 84 | 0 | 5.0 | 14.0 | 0.00 | 0.02 | 0.00 | 86 | 1014.0 |
| 20260902145707 | 84 | 0 | 6.0 | 14.0 | 0.00 | 0.02 | 0.00 | 86 | 1013.9 |
| 20260902145608 | 84 | 0 | 9.0 | 14.0 | 0.00 | 0.02 | 0.00 | 86 | 1013.9 |
| 20260902145509 | 84 | 0 | 10.0 | 14.0 | 0.00 | 0.02 | 0.00 | 86 | 1013.9 |
| 20260902145408 | 84 | 0 | 7.0 | 14.0 | 0.00 | 0.02 | 0.00 | 86 | 1013.9 |
| 20260902145308 | 84 | 0 | 7.0 | 14.0 | 0.00 | 0.02 | 0.00 | 86 | 1013.9 |
| 20260902145208 | 84 | 0 | 8.0 | 14.0 | 0.00 | 0.02 | 0.00 | 86 | 1013.9 |
| 20260902145108 | 84 | 0 | 7.0 | 11.0 | 0.00 | 0.02 | 0.00 | 86 | 1013.9 |
| 20260902145009 | 84 | 0 | 7.0 | 11.0 | 0.00 | 0.02 | 0.00 | 86 | 1014.0 |
| 20260902144909 | 84 | 0 | 7.0 | 11.0 | 0.00 | 0.02 | 0.00 | 86 | 1013.8 |
| 20260902144808 | 84 | 0 | 8.0 | 11.0 | 0.00 | 0.02 | 0.00 | 86 | 1013.9 |
| 20260902144709 | 84 | 0 | 5.0 | 11.0 | 0.00 | 0.02 | 0.00 | 86 | 1013.9 |
| 20260902144607 | 84 | 0 | 4.0 | 10.0 | 0.00 | 0.02 | 0.00 | 86 | 1013.9 |
| 20260902144508 | 83 | 0 | 4.0 | 10.0 | 0.00 | 0.02 | 0.00 | 86 | 1013.9 |
| 20260902144407 | 83 | 0 | 5.0 | 10.0 | 0.00 | 0.02 | 0.00 | 86 | 1013.9 |
| 20260902144308 | 83 | 0 | 5.0 | 10.0 | 0.00 | 0.02 | 0.00 | 86 | 1013.9 |
| 20260902144207 | 83 | 0 | 5.0 | 10.0 | 0.00 | 0.02 | 0.00 | 86 | 1013.8 |
| 20260902144109 | 83 | 0 | 5.0 | 10.0 | 0.00 | 0.02 | 0.00 | 86 | 1013.8 |
| 20260902144008 | 83 | 0 | 5.0 | 10.0 | 0.00 | 0.02 | 0.00 | 86 | 1013.8 |
| 20260902143908 | 83 | 0 | 6.0 | 10.0 | 0.00 | 0.02 | 0.00 | 86 | 1013.8 |
| 20260902143807 | 83 | 0 | 5.0 | 11.0 | 0.00 | 0.02 | 0.00 | 87 | 1013.9 |
| 20260902143707 | 83 | 0 | 5.0 | 11.0 | 0.00 | 0.02 | 0.00 | 87 | 1013.9 |
| 20260902143607 | 83 | 0 | 5.0 | 11.0 | 0.00 | 0.02 | 0.00 | 87 | 1013.8 |
| 20260902143508 | 83 | 0 | 4.0 | 11.0 | 0.00 | 0.02 | 0.00 | 87 | 1013.8 |
| 20260902143408 | 83 | 0 | 7.0 | 11.0 | 0.00 | 0.02 | 0.00 | 87 | 1013.8 |
| 20260902143309 | 83 | 0 | 7.0 | 11.0 | 0.00 | 0.02 | 0.00 | 87 | 1013.8 |
| 20260902143208 | 83 | 0 | 7.0 | 11.0 | 0.00 | 0.02 | 0.00 | 87 | 1013.7 |
| 20260902143109 | 83 | 0 | 6.0 | 13.0 | 0.00 | 0.02 | 0.00 | 87 | 1013.8 |
| 20260902143008 | 83 | 0 | 6.0 | 13.0 | 0.00 | 0.02 | 0.00 | 87 | 1013.8 |
| 20260902142908 | 83 | 0 | 6.0 | 13.0 | 0.00 | 0.02 | 0.00 | 87 | 1013.7 |
| 20260902142808 | 83 | 0 | 5.0 | 13.0 | 0.00 | 0.02 | 0.00 | 87 | 1013.7 |
| 20260902142707 | 83 | 0 | 7.0 | 13.0 | 0.00 | 0.02 | 0.00 | 87 | 1013.8 |
| 20260902142608 | 83 | 0 | 8.0 | 13.0 | 0.00 | 0.02 | 0.00 | 87 | 1013.8 |
| 20260902142507 | 83 | 0 | 7.0 | 13.0 | 0.00 | 0.02 | 0.00 | 87 | 1013.8 |
| 20260902142408 | 83 | 0 | 5.0 | 13.0 | 0.00 | 0.02 | 0.00 | 87 | 1013.8 |
| 20260902142307 | 83 | 0 | 6.0 | 13.0 | 0.00 | 0.02 | 0.00 | 87 | 1013.8 |
| 20260902142208 | 83 | 0 | 8.0 | 13.0 | 0.00 | 0.02 | 0.00 | 87 | 1013.9 |
| 20260902142109 | 83 | 0 | 7.0 | 10.0 | 0.00 | 0.02 | 0.00 | 87 | 1013.9 |
| 20260902142007 | 83 | 0 | 7.0 | 9.0 | 0.00 | 0.02 | 0.00 | 87 | 1013.9 |
| 20260902141909 | 0 | 0.0 | 0.0 | 0.00 | 0.02 | 0.00 | 1013.9 | ||
| 20260902141810 | 0 | 0.0 | 0.0 | 0.00 | 0.02 | 0.00 | 1013.9 | ||
| 20260902141708 | 0 | 0.0 | 0.0 | 0.00 | 0.02 | 0.00 | 1013.8 | ||
| 20260902141605 | 0 | 0.0 | 0.0 | 0.00 | 0.02 | 0.00 | 1013.8 | ||
| 20260902141505 | 0 | 0.0 | 0.0 | 0.00 | 0.02 | 0.00 | 1013.8 | ||
| 20260902141405 | 83 | 0 | 6.0 | 7.0 | 0.00 | 0.02 | 0.00 | 87 | 1013.8 |
| 20260902141305 | 83 | 0 | 6.0 | 12.0 | 0.00 | 0.02 | 0.00 | 87 | 1013.9 |
| 20260902141204 | 83 | 0 | 6.0 | 12.0 | 0.00 | 0.02 | 0.00 | 87 | 1013.8 |
| 20260902141104 | 83 | 0 | 6.0 | 12.0 | 0.00 | 0.02 | 0.00 | 87 | 1013.8 |
| 20260902141003 | 83 | 0 | 6.0 | 12.0 | 0.00 | 0.02 | 0.00 | 87 | 1013.9 |
| 20260902140904 | 83 | 0 | 6.0 | 12.0 | 0.00 | 0.02 | 0.00 | 87 | 1013.9 |
| 20260902140803 | 83 | 0 | 6.0 | 12.0 | 0.00 | 0.02 | 0.00 | 87 | 1013.9 |
| 20260902140703 | 83 | 0 | 6.0 | 12.0 | 0.00 | 0.02 | 0.00 | 87 | 1013.9 |
| 20260902140603 | 83 | 0 | 6.0 | 12.0 | 0.00 | 0.02 | 0.00 | 87 | 1013.8 |
| 20260902140504 | 83 | 0 | 6.0 | 12.0 | 0.00 | 0.02 | 0.00 | 87 | 1013.9 |
| 20260902140404 | 83 | 0 | 7.0 | 12.0 | 0.00 | 0.02 | 0.00 | 87 | 1013.8 |
| 20260902140303 | 83 | 0 | 6.0 | 11.0 | 0.00 | 0.02 | 0.00 | 87 | 1013.8 |
| 20260902140202 | 83 | 0 | 5.0 | 11.0 | 0.00 | 0.02 | 0.00 | 87 | 1013.7 |
| 20260902140103 | 83 | 0 | 6.0 | 11.0 | 0.00 | 0.02 | 0.00 | 87 | 1013.8 |
| 20260902140004 | 83 | 0 | 7.0 | 11.0 | 0.00 | 0.02 | 0.00 | 87 | 1013.8 |
| 20260902135904 | 83 | 0 | 7.0 | 11.0 | 0.00 | 0.02 | 0.00 | 87 | 1013.8 |
| 20260902135804 | 83 | 0 | 9.0 | 11.0 | 0.00 | 0.02 | 0.00 | 88 | 1013.7 |
| 20260902135703 | 83 | 0 | 4.0 | 7.0 | 0.00 | 0.02 | 0.00 | 88 | 1013.7 |
| 20260902135604 | 83 | 0 | 4.0 | 7.0 | 0.00 | 0.02 | 0.00 | 88 | 1013.7 |
| 20260902135503 | 83 | 0 | 4.0 | 7.0 | 0.00 | 0.02 | 0.00 | 88 | 1013.7 |
| 20260902135403 | 83 | 0 | 4.0 | 11.0 | 0.00 | 0.02 | 0.00 | 88 | 1013.7 |
| 20260902135306 | 83 | 0 | 4.0 | 11.0 | 0.00 | 0.02 | 0.00 | 88 | 1013.7 |
| 20260902135203 | 83 | 0 | 4.0 | 11.0 | 0.00 | 0.02 | 0.00 | 88 | 1013.6 |
| 20260902135103 | 83 | 0 | 5.0 | 11.0 | 0.00 | 0.02 | 0.00 | 88 | 1013.6 |
| 20260902135004 | 83 | 0 | 6.0 | 11.0 | 0.00 | 0.02 | 0.00 | 88 | 1013.7 |
| 20260902134903 | 83 | 0 | 6.0 | 11.0 | 0.00 | 0.02 | 0.00 | 88 | 1013.7 |
| 20260902134804 | 83 | 0 | 6.0 | 11.0 | 0.00 | 0.02 | 0.00 | 88 | 1013.7 |
| 20260902134703 | 83 | 0 | 6.0 | 11.0 | 0.00 | 0.02 | 0.00 | 88 | 1013.7 |
| 20260902134604 | 83 | 0 | 6.0 | 11.0 | 0.00 | 0.02 | 0.00 | 88 | 1013.7 |
| 20260902134435 | 83 | 0 | 5.0 | 11.0 | 0.00 | 0.02 | 0.00 | 88 | 1013.6 |
| 20260902134332 | 83 | 0 | 6.0 | 11.0 | 0.00 | 0.02 | 0.00 | 88 | 1013.7 |
| 20260902134219 | 83 | 0 | 6.0 | 11.0 | 0.00 | 0.02 | 0.00 | 88 | 1013.7 |
| 20260902134118 | 83 | 0 | 6.0 | 11.0 | 0.00 | 0.02 | 0.00 | 88 | 1013.7 |
| 20260902134007 | 83 | 0 | 6.0 | 11.0 | 0.00 | 0.02 | 0.00 | 88 | 1013.7 |
| 20260902133906 | 83 | 0 | 7.0 | 11.0 | 0.00 | 0.02 | 0.00 | 88 | 1013.7 |
| 20260902133804 | 83 | 0 | 6.0 | 11.0 | 0.00 | 0.02 | 0.00 | 88 | 1013.7 |
| 20260902133704 | 83 | 0 | 5.0 | 9.0 | 0.00 | 0.02 | 0.00 | 88 | 1013.7 |
| 20260902133603 | 83 | 0 | 4.0 | 9.0 | 0.00 | 0.02 | 0.00 | 88 | 1013.7 |
| 20260902133504 | 83 | 0 | 5.0 | 9.0 | 0.00 | 0.02 | 0.00 | 88 | 1013.7 |
| 20260902133405 | 83 | 0 | 4.0 | 9.0 | 0.00 | 0.02 | 0.00 | 88 | 1013.7 |
| 20260902133304 | 83 | 0 | 4.0 | 9.0 | 0.00 | 0.02 | 0.00 | 88 | 1013.6 |
| 20260902133202 | 83 | 0 | 4.0 | 9.0 | 0.00 | 0.02 | 0.00 | 88 | 1013.6 |
| 20260902133102 | 82 | 0 | 5.0 | 9.0 | 0.00 | 0.02 | 0.00 | 88 | 1013.6 |
| 20260902133003 | 82 | 0 | 6.0 | 9.0 | 0.00 | 0.02 | 0.00 | 88 | 1013.6 |
| 20260902132902 | 82 | 0 | 6.0 | 9.0 | 0.00 | 0.02 | 0.00 | 88 | 1013.6 |
| 20260902132802 | 82 | 0 | 5.0 | 7.0 | 0.00 | 0.02 | 0.00 | 88 | 1013.6 |
| 20260902132702 | 82 | 0 | 4.0 | 7.0 | 0.00 | 0.02 | 0.00 | 88 | 1013.6 |
| 20260902132604 | 82 | 0 | 5.0 | 7.0 | 0.00 | 0.02 | 0.00 | 88 | 1013.6 |
| 20260902132504 | 82 | 0 | 5.0 | 7.0 | 0.00 | 0.02 | 0.00 | 88 | 1013.6 |
| 20260902132403 | 82 | 0 | 5.0 | 10.0 | 0.00 | 0.02 | 0.00 | 88 | 1013.7 |
| 20260902132306 | 82 | 0 | 5.0 | 10.0 | 0.00 | 0.02 | 0.00 | 88 | 1013.6 |
| 20260902132203 | 82 | 0 | 5.0 | 10.0 | 0.00 | 0.02 | 0.00 | 88 | 1013.7 |
| 20260902132102 | 82 | 0 | 5.0 | 10.0 | 0.00 | 0.02 | 0.00 | 88 | 1013.6 |
| 20260902132004 | 82 | 0 | 5.0 | 10.0 | 0.00 | 0.02 | 0.00 | 88 | 1013.7 |
| 20260902131904 | 82 | 0 | 5.0 | 10.0 | 0.00 | 0.02 | 0.00 | 88 | 1013.7 |
| 20260902131803 | 82 | 0 | 5.0 | 10.0 | 0.00 | 0.02 | 0.00 | 88 | 1013.6 |
| 20260902131703 | 82 | 0 | 5.0 | 10.0 | 0.00 | 0.02 | 0.00 | 88 | 1013.6 |
| 20260902131601 | 82 | 0 | 6.0 | 10.0 | 0.00 | 0.02 | 0.00 | 88 | 1013.6 |
| 20260902131502 | 82 | 0 | 6.0 | 10.0 | 0.00 | 0.02 | 0.00 | 88 | 1013.6 |
| 20260902131402 | 82 | 0 | 5.0 | 9.0 | 0.00 | 0.02 | 0.00 | 88 | 1013.6 |
| 20260902131304 | 82 | 0 | 6.0 | 9.0 | 0.00 | 0.02 | 0.00 | 88 | 1013.6 |
| 20260902131203 | 82 | 0 | 5.0 | 6.0 | 0.00 | 0.02 | 0.00 | 88 | 1013.6 |
| 20260902131102 | 82 | 0 | 5.0 | 7.0 | 0.00 | 0.02 | 0.00 | 88 | 1013.5 |
| 20260902131004 | 82 | 0 | 5.0 | 9.0 | 0.00 | 0.02 | 0.00 | 88 | 1013.6 |
| 20260902130903 | 82 | 0 | 5.0 | 9.0 | 0.00 | 0.02 | 0.00 | 88 | 1013.6 |
| 20260902130754 | 82 | 0 | 5.0 | 9.0 | 0.00 | 0.02 | 0.00 | 88 | 1013.5 |
| 20260902130639 | 82 | 0 | 6.0 | 9.0 | 0.00 | 0.02 | 0.00 | 88 | 1013.5 |
| 20260902130537 | 82 | 0 | 5.0 | 9.0 | 0.00 | 0.02 | 0.00 | 89 | 1013.5 |
| 20260902130432 | 82 | 0 | 5.0 | 9.0 | 0.00 | 0.02 | 0.00 | 89 | 1013.5 |
| 20260902130333 | 82 | 0 | 5.0 | 10.0 | 0.00 | 0.02 | 0.00 | 89 | 1013.5 |
| 20260902130204 | 82 | 0 | 6.0 | 10.0 | 0.00 | 0.02 | 0.00 | 89 | 1013.5 |
| 20260902130104 | 82 | 0 | 6.0 | 10.0 | 0.00 | 0.02 | 0.00 | 89 | 1013.5 |
| 20260902130003 | 82 | 0 | 5.0 | 10.0 | 0.00 | 0.02 | 0.00 | 89 | 1013.5 |
| 20260902125903 | 82 | 0 | 5.0 | 10.0 | 0.00 | 0.02 | 0.00 | 89 | 1013.4 |
| 20260902125802 | 82 | 0 | 4.0 | 10.0 | 0.00 | 0.02 | 0.00 | 89 | 1013.4 |
| 20260902125702 | 82 | 0 | 3.0 | 10.0 | 0.00 | 0.02 | 0.00 | 89 | 1013.4 |
| 20260902125603 | 82 | 0 | 4.0 | 10.0 | 0.00 | 0.02 | 0.00 | 89 | 1013.4 |
| 20260902125502 | 82 | 0 | 6.0 | 10.0 | 0.00 | 0.02 | 0.00 | 89 | 1013.4 |
| 20260902125402 | 82 | 0 | 5.0 | 10.0 | 0.00 | 0.02 | 0.00 | 89 | 1013.4 |
| 20260902125305 | 82 | 0 | 5.0 | 10.0 | 0.00 | 0.02 | 0.00 | 89 | 1013.3 |
| 20260902125202 | 82 | 0 | 6.0 | 11.0 | 0.00 | 0.02 | 0.00 | 89 | 1013.3 |
| 20260902125101 | 82 | 0 | 5.0 | 11.0 | 0.00 | 0.02 | 0.00 | 89 | 1013.3 |
| 20260902125002 | 82 | 0 | 4.0 | 11.0 | 0.00 | 0.02 | 0.00 | 89 | 1013.3 |
| 20260902124901 | 82 | 0 | 5.0 | 11.0 | 0.00 | 0.02 | 0.00 | 89 | 1013.3 |
| 20260902124802 | 82 | 0 | 5.0 | 11.0 | 0.00 | 0.02 | 0.00 | 89 | 1013.3 |
| 20260902124702 | 82 | 0 | 6.0 | 11.0 | 0.00 | 0.02 | 0.00 | 89 | 1013.3 |
| 20260902124602 | 82 | 0 | 6.0 | 11.0 | 0.00 | 0.02 | 0.00 | 89 | 1013.3 |
| 20260902124502 | 82 | 0 | 6.0 | 11.0 | 0.00 | 0.02 | 0.00 | 89 | 1013.3 |
| 20260902124401 | 82 | 0 | 7.0 | 11.0 | 0.00 | 0.02 | 0.00 | 89 | 1013.2 |
| 20260902124303 | 82 | 0 | 6.0 | 11.0 | 0.00 | 0.02 | 0.00 | 89 | 1013.2 |
| 20260902124201 | 82 | 0 | 5.0 | 11.0 | 0.00 | 0.02 | 0.00 | 89 | 1013.3 |
| 20260902124103 | 82 | 0 | 5.0 | 10.0 | 0.00 | 0.02 | 0.00 | 89 | 1013.2 |
| 20260902124001 | 82 | 0 | 5.0 | 12.0 | 0.00 | 0.02 | 0.00 | 89 | 1013.2 |
| 20260902123902 | 82 | 0 | 5.0 | 14.0 | 0.00 | 0.02 | 0.00 | 89 | 1013.1 |
| 20260902123803 | 82 | 0 | 5.0 | 14.0 | 0.00 | 0.02 | 0.00 | 89 | 1013.0 |
| 20260902123700 | 82 | 0 | 6.0 | 14.0 | 0.00 | 0.02 | 0.00 | 89 | 1013.2 |
| 20260902123602 | 82 | 0 | 6.0 | 14.0 | 0.00 | 0.02 | 0.00 | 89 | 1013.0 |
| 20260902123500 | 82 | 0 | 6.0 | 14.0 | 0.00 | 0.02 | 0.00 | 89 | 1013.0 |
| 20260902123402 | 82 | 0 | 5.0 | 14.0 | 0.00 | 0.02 | 0.00 | 89 | 1013.0 |
| 20260902123305 | 82 | 0 | 4.0 | 14.0 | 0.00 | 0.02 | 0.00 | 89 | 1013.0 |
| 20260902123200 | 82 | 0 | 7.0 | 14.0 | 0.00 | 0.02 | 0.00 | 89 | 1013.0 |
| 20260902123101 | 82 | 0 | 9.0 | 14.0 | 0.00 | 0.02 | 0.00 | 89 | 1013.0 |
| 20260902123001 | 82 | 0 | 8.0 | 14.0 | 0.00 | 0.02 | 0.00 | 89 | 1012.9 |
| 20260902122902 | 82 | 0 | 5.0 | 10.0 | 0.00 | 0.02 | 0.00 | 89 | 1012.9 |
| 20260902122803 | 82 | 0 | 4.0 | 9.0 | 0.00 | 0.02 | 0.00 | 89 | 1012.8 |
| 20260902122700 | 82 | 0 | 4.0 | 10.0 | 0.00 | 0.02 | 0.00 | 89 | 1012.8 |
| 20260902122601 | 82 | 0 | 3.0 | 10.0 | 0.00 | 0.02 | 0.00 | 89 | 1012.8 |
| 20260902122502 | 82 | 0 | 4.0 | 11.0 | 0.00 | 0.02 | 0.00 | 89 | 1012.8 |
| 20260902122401 | 82 | 0 | 5.0 | 11.0 | 0.00 | 0.02 | 0.00 | 89 | 1012.7 |
| 20260902122305 | 82 | 0 | 6.0 | 11.0 | 0.00 | 0.02 | 0.00 | 89 | 1012.7 |
| 20260902122200 | 82 | 0 | 6.0 | 11.0 | 0.00 | 0.02 | 0.00 | 89 | 1012.7 |
| 20260902122100 | 82 | 0 | 6.0 | 12.0 | 0.00 | 0.02 | 0.00 | 89 | 1012.7 |
| 20260902122002 | 82 | 0 | 6.0 | 12.0 | 0.00 | 0.02 | 0.00 | 89 | 1012.6 |
| 20260902121900 | 82 | 0 | 6.0 | 12.0 | 0.00 | 0.02 | 0.00 | 89 | 1012.5 |
| 20260902121801 | 82 | 0 | 6.0 | 12.0 | 0.00 | 0.02 | 0.00 | 89 | 1012.5 |
| 20260902121702 | 82 | 0 | 7.0 | 12.0 | 0.00 | 0.02 | 0.00 | 89 | 1012.4 |
| 20260902121600 | 82 | 0 | 8.0 | 12.0 | 0.00 | 0.02 | 0.00 | 89 | 1012.4 |
| 20260902121501 | 82 | 0 | 7.0 | 12.0 | 0.00 | 0.02 | 0.00 | 89 | 1012.4 |
| 20260902121402 | 82 | 0 | 4.0 | 12.0 | 0.00 | 0.02 | 0.00 | 89 | 1012.3 |
| 20260902121303 | 82 | 0 | 6.0 | 12.0 | 0.00 | 0.02 | 0.00 | 89 | 1012.3 |
| 20260902121202 | 82 | 0 | 7.0 | 12.0 | 0.00 | 0.02 | 0.00 | 89 | 1012.2 |
| 20260902121102 | 82 | 0 | 8.0 | 11.0 | 0.00 | 0.02 | 0.00 | 89 | 1012.3 |
| 20260902121001 | 82 | 0 | 7.0 | 11.0 | 0.00 | 0.02 | 0.00 | 89 | 1012.2 |
| 20260902120901 | 82 | 0 | 6.0 | 11.0 | 0.00 | 0.02 | 0.00 | 89 | 1012.2 |
| 20260902120801 | 82 | 0 | 6.0 | 11.0 | 0.00 | 0.02 | 0.00 | 89 | 1012.2 |
| 20260902120701 | 82 | 0 | 7.0 | 11.0 | 0.00 | 0.02 | 0.00 | 89 | 1012.2 |
| 20260902120600 | 82 | 0 | 6.0 | 11.0 | 0.00 | 0.02 | 0.00 | 89 | 1012.2 |
| 20260902120500 | 82 | 0 | 4.0 | 11.0 | 0.00 | 0.02 | 0.00 | 89 | 1012.2 |
| 20260902120400 | 82 | 0 | 4.0 | 11.0 | 0.00 | 0.02 | 0.00 | 89 | 1012.2 |
| 20260902120301 | 82 | 0 | 6.0 | 11.0 | 0.00 | 0.02 | 0.00 | 89 | 1012.1 |
| 20260902120200 | 82 | 0 | 6.0 | 11.0 | 0.00 | 0.02 | 0.00 | 89 | 1012.1 |
| 20260902120001 | 82 | 0 | 4.0 | 7.0 | 0.00 | 0.02 | 0.00 | 89 | 1012.1 |
| 20260902115901 | 82 | 0 | 5.0 | 7.0 | 0.00 | 0.02 | 0.00 | 89 | 1012.1 |
| 20260902115800 | 82 | 0 | 5.0 | 7.0 | 0.00 | 0.02 | 0.00 | 89 | 1012.2 |
| 20260902115701 | 82 | 0 | 6.0 | 9.0 | 0.00 | 0.02 | 0.00 | 89 | 1012.2 |
| 20260902115601 | 82 | 0 | 4.0 | 9.0 | 0.00 | 0.02 | 0.00 | 89 | 1012.2 |
| 20260902115501 | 82 | 0 | 4.0 | 9.0 | 0.00 | 0.02 | 0.00 | 89 | 1012.2 |
| 20260902115401 | 82 | 0 | 4.0 | 9.0 | 0.00 | 0.02 | 0.00 | 89 | 1012.2 |
| 20260902115301 | 82 | 0 | 4.0 | 9.0 | 0.00 | 0.02 | 0.00 | 89 | 1012.3 |
| 20260902115200 | 82 | 0 | 4.0 | 9.0 | 0.00 | 0.02 | 0.00 | 89 | 1012.3 |
| 20260902115101 | 82 | 0 | 9.0 | 9.0 | 0.00 | 0.02 | 0.00 | 88 | 1012.3 |
| 20260902115001 | 82 | 0 | 9.0 | 9.0 | 0.00 | 0.02 | 0.00 | 88 | 1012.2 |
| 20260902114901 | 82 | 0 | 9.0 | 9.0 | 0.00 | 0.02 | 0.00 | 88 | 1012.2 |
| 20260902114801 | 82 | 0 | 9.0 | 9.0 | 0.00 | 0.02 | 0.00 | 88 | 1012.2 |
| 20260902114700 | 82 | 0 | 4.0 | 5.0 | 0.00 | 0.02 | 0.00 | 88 | 1012.2 |
| 20260902114601 | 82 | 0 | 4.0 | 7.0 | 0.00 | 0.02 | 0.00 | 88 | 1012.3 |
| 20260902114500 | 82 | 0 | 4.0 | 10.0 | 0.00 | 0.02 | 0.00 | 88 | 1012.3 |
| 20260902114400 | 82 | 0 | 4.0 | 10.0 | 0.00 | 0.02 | 0.00 | 88 | 1012.3 |
| 20260902114259 | 82 | 0 | 3.0 | 11.0 | 0.00 | 0.02 | 0.00 | 88 | 1012.3 |
| 20260902114201 | 82 | 0 | 6.0 | 11.0 | 0.00 | 0.02 | 0.00 | 88 | 1012.3 |
| 20260902114101 | 82 | 0 | 6.0 | 11.0 | 0.00 | 0.02 | 0.00 | 88 | 1012.3 |
| 20260902114001 | 82 | 0 | 6.0 | 11.0 | 0.00 | 0.02 | 0.00 | 88 | 1012.3 |
| 20260902113901 | 82 | 0 | 6.0 | 11.0 | 0.00 | 0.02 | 0.00 | 88 | 1012.2 |
| 20260902113800 | 82 | 0 | 6.0 | 11.0 | 0.00 | 0.02 | 0.00 | 88 | 1012.2 |
| 20260902113659 | 82 | 0 | 7.0 | 11.0 | 0.00 | 0.02 | 0.00 | 88 | 1012.2 |
| 20260902113559 | 82 | 0 | 7.0 | 11.0 | 0.00 | 0.02 | 0.00 | 88 | 1012.1 |
| 20260902113500 | 82 | 0 | 7.0 | 11.0 | 0.00 | 0.02 | 0.00 | 88 | 1012.1 |
| 20260902113359 | 82 | 0 | 6.0 | 11.0 | 0.00 | 0.02 | 0.00 | 88 | 1012.2 |
| 20260902113301 | 82 | 0 | 5.0 | 11.0 | 0.00 | 0.02 | 0.00 | 88 | 1012.1 |
| 20260902113202 | 82 | 0 | 6.0 | 11.0 | 0.00 | 0.02 | 0.00 | 88 | 1012.1 |
| 20260902113100 | 82 | 0 | 7.0 | 11.0 | 0.00 | 0.02 | 0.00 | 88 | 1012.2 |
| 20260902113000 | 82 | 0 | 8.0 | 10.0 | 0.00 | 0.02 | 0.00 | 88 | 1012.2 |
| 20260902112900 | 82 | 0 | 6.0 | 10.0 | 0.00 | 0.02 | 0.00 | 88 | 1012.2 |
| 20260902112801 | 82 | 0 | 6.0 | 10.0 | 0.00 | 0.02 | 0.00 | 88 | 1012.2 |
| 20260902112700 | 82 | 0 | 6.0 | 10.0 | 0.00 | 0.02 | 0.00 | 88 | 1012.2 |
| 20260902112600 | 82 | 0 | 6.0 | 10.0 | 0.00 | 0.02 | 0.00 | 88 | 1012.2 |
| 20260902112500 | 82 | 0 | 6.0 | 10.0 | 0.00 | 0.02 | 0.00 | 88 | 1012.2 |
| 20260902112401 | 82 | 0 | 6.0 | 9.0 | 0.00 | 0.02 | 0.00 | 88 | 1012.2 |
| 20260902112259 | 82 | 0 | 5.0 | 7.0 | 0.00 | 0.02 | 0.00 | 88 | 1012.2 |
| 20260902112201 | 82 | 0 | 4.0 | 6.0 | 0.00 | 0.02 | 0.00 | 88 | 1012.3 |
| 20260902112100 | 82 | 0 | 3.0 | 7.0 | 0.00 | 0.02 | 0.00 | 88 | 1012.2 |
| 20260902112000 | 82 | 0 | 3.0 | 7.0 | 0.00 | 0.02 | 0.00 | 88 | 1012.2 |
| 20260902111900 | 82 | 0 | 3.0 | 7.0 | 0.00 | 0.02 | 0.00 | 88 | 1012.2 |
| 20260902111801 | 82 | 0 | 3.0 | 7.0 | 0.00 | 0.02 | 0.00 | 88 | 1012.2 |
| 20260902111659 | 82 | 0 | 2.0 | 9.0 | 0.00 | 0.02 | 0.00 | 88 | 1012.2 |
| 20260902111600 | 82 | 0 | 5.0 | 9.0 | 0.00 | 0.02 | 0.00 | 88 | 1012.2 |
| 20260902111500 | 82 | 0 | 5.0 | 9.0 | 0.00 | 0.02 | 0.00 | 88 | 1012.2 |
| 20260902111400 | 82 | 0 | 5.0 | 9.0 | 0.00 | 0.02 | 0.00 | 88 | 1012.2 |
| 20260902111301 | 82 | 0 | 5.0 | 9.0 | 0.00 | 0.02 | 0.00 | 88 | 1012.2 |
| 20260902111158 | 82 | 0 | 4.0 | 9.0 | 0.00 | 0.02 | 0.00 | 88 | 1012.2 |
| 20260902111100 | 82 | 0 | 5.0 | 9.0 | 0.00 | 0.02 | 0.00 | 88 | 1012.2 |
| 20260902110959 | 82 | 0 | 5.0 | 9.0 | 0.00 | 0.02 | 0.00 | 88 | 1012.2 |
| 20260902110900 | 82 | 0 | 6.0 | 9.0 | 0.00 | 0.02 | 0.00 | 88 | 1012.2 |
| 20260902110800 | 82 | 0 | 6.0 | 10.0 | 0.00 | 0.02 | 0.00 | 88 | 1012.1 |
| 20260902110657 | 82 | 0 | 6.0 | 10.0 | 0.00 | 0.02 | 0.00 | 88 | 1012.2 |
| 20260902110555 | 82 | 0 | 6.0 | 10.0 | 0.00 | 0.02 | 0.00 | 88 | 1012.2 |
| 20260902110433 | 82 | 0 | 6.0 | 10.0 | 0.00 | 0.02 | 0.00 | 88 | 1012.2 |
| 20260902110332 | 82 | 0 | 6.0 | 10.0 | 0.00 | 0.02 | 0.00 | 88 | 1012.2 |
| 20260902110203 | 82 | 0 | 6.0 | 10.0 | 0.00 | 0.02 | 0.00 | 88 | 1012.2 |
| 20260902110105 | 82 | 0 | 7.0 | 10.0 | 0.00 | 0.02 | 0.00 | 88 | 1012.2 |
| 20260902110005 | 82 | 0 | 7.0 | 10.0 | 0.00 | 0.02 | 0.00 | 88 | 1012.2 |
| 20260902105903 | 82 | 0 | 7.0 | 10.0 | 0.00 | 0.02 | 0.00 | 88 | 1012.2 |
| 20260902105802 | 82 | 0 | 6.0 | 10.0 | 0.00 | 0.02 | 0.00 | 88 | 1012.3 |
| 20260902105704 | 82 | 0 | 4.0 | 9.0 | 0.00 | 0.02 | 0.00 | 88 | 1012.2 |
| 20260902105602 | 82 | 0 | 5.0 | 9.0 | 0.00 | 0.02 | 0.00 | 88 | 1012.2 |
| 20260902105458 | 82 | 241 | 6.0 | 9.0 | 0.00 | 0.02 | 0.00 | 88 | 1012.3 |
| 20260902105358 | 82 | 0 | 6.0 | 9.0 | 0.00 | 0.02 | 0.00 | 88 | 1012.3 |
| 20260902105258 | 82 | 0 | 5.0 | 7.0 | 0.00 | 0.02 | 0.00 | 88 | 1012.3 |
| 20260902105158 | 82 | 0 | 4.0 | 7.0 | 0.00 | 0.02 | 0.00 | 88 | 1012.3 |
| 20260902105058 | 82 | 0 | 5.0 | 7.0 | 0.00 | 0.02 | 0.00 | 88 | 1012.4 |
| 20260902105000 | 82 | 0 | 5.0 | 7.0 | 0.00 | 0.02 | 0.00 | 88 | 1012.4 |
| 20260902104859 | 82 | 0 | 5.0 | 7.0 | 0.00 | 0.02 | 0.00 | 88 | 1012.4 |
| 20260902104759 | 82 | 0 | 5.0 | 7.0 | 0.00 | 0.02 | 0.00 | 88 | 1012.4 |
| 20260902104659 | 82 | 0 | 5.0 | 6.0 | 0.00 | 0.02 | 0.00 | 88 | 1012.4 |
| 20260902104600 | 82 | 0 | 4.0 | 6.0 | 0.00 | 0.02 | 0.00 | 88 | 1012.5 |
| 20260902104459 | 82 | 0 | 4.0 | 6.0 | 0.00 | 0.02 | 0.00 | 88 | 1012.5 |
| 20260902104358 | 82 | 0 | 4.0 | 6.0 | 0.00 | 0.02 | 0.00 | 88 | 1012.4 |
| 20260902104257 | 82 | 0 | 4.0 | 6.0 | 0.00 | 0.02 | 0.00 | 88 | 1012.4 |
| 20260902104158 | 82 | 0 | 4.0 | 6.0 | 0.00 | 0.02 | 0.00 | 88 | 1012.4 |
| 20260902104057 | 82 | 0 | 4.0 | 6.0 | 0.00 | 0.02 | 0.00 | 88 | 1012.4 |
| 20260902103958 | 82 | 0 | 4.0 | 6.0 | 0.00 | 0.02 | 0.00 | 88 | 1012.4 |
| 20260902103857 | 82 | 0 | 4.0 | 6.0 | 0.00 | 0.02 | 0.00 | 88 | 1012.4 |
| 20260902103732 | 82 | 0 | 5.0 | 6.0 | 0.00 | 0.02 | 0.00 | 88 | 1012.4 |
| 20260902103619 | 82 | 0 | 4.0 | 6.0 | 0.00 | 0.02 | 0.00 | 88 | 1012.4 |
| 20260902103518 | 82 | 0 | 4.0 | 6.0 | 0.00 | 0.02 | 0.00 | 88 | 1012.4 |
| 20260902103418 | 82 | 0 | 5.0 | 6.0 | 0.00 | 0.02 | 0.00 | 88 | 1012.5 |
| 20260902103317 | 82 | 0 | 4.0 | 6.0 | 0.00 | 0.02 | 0.00 | 88 | 1012.4 |
| 20260902103209 | 82 | 0 | 4.0 | 6.0 | 0.00 | 0.02 | 0.00 | 88 | 1012.4 |
| 20260902103108 | 82 | 0 | 3.0 | 6.0 | 0.00 | 0.02 | 0.00 | 88 | 1012.4 |
| 20260902103007 | 82 | 0 | 3.0 | 6.0 | 0.00 | 0.02 | 0.00 | 88 | 1012.4 |
| 20260902102904 | 82 | 0 | 3.0 | 6.0 | 0.00 | 0.02 | 0.00 | 88 | 1012.4 |
| 20260902102804 | 82 | 0 | 4.0 | 7.0 | 0.00 | 0.02 | 0.00 | 88 | 1012.4 |
| 20260902102703 | 82 | 0 | 4.0 | 7.0 | 0.00 | 0.02 | 0.00 | 88 | 1012.4 |
| 20260902102604 | 82 | 0 | 4.0 | 7.0 | 0.00 | 0.02 | 0.00 | 88 | 1012.4 |
| 20260902102505 | 82 | 0 | 4.0 | 10.0 | 0.00 | 0.02 | 0.00 | 88 | 1012.3 |
| 20260902102404 | 82 | 0 | 3.0 | 10.0 | 0.00 | 0.02 | 0.00 | 88 | 1012.3 |
| 20260902102307 | 82 | 0 | 2.0 | 10.0 | 0.00 | 0.02 | 0.00 | 88 | 1012.4 |
| 20260902102204 | 82 | 0 | 2.0 | 10.0 | 0.00 | 0.02 | 0.00 | 88 | 1012.3 |
| 20260902102101 | 82 | 0 | 3.0 | 10.0 | 0.00 | 0.02 | 0.00 | 88 | 1012.2 |
| 20260902102004 | 82 | 0 | 4.0 | 10.0 | 0.00 | 0.02 | 0.00 | 88 | 1012.3 |
| 20260902101902 | 82 | 0 | 5.0 | 10.0 | 0.00 | 0.02 | 0.00 | 88 | 1012.3 |
| 20260902101803 | 82 | 0 | 4.0 | 10.0 | 0.00 | 0.02 | 0.00 | 88 | 1012.2 |
| 20260902101702 | 82 | 0 | 5.0 | 10.0 | 0.00 | 0.02 | 0.00 | 88 | 1012.3 |
| 20260902101603 | 82 | 0 | 5.0 | 10.0 | 0.00 | 0.02 | 0.00 | 87 | 1012.2 |
| 20260902101504 | 82 | 0 | 5.0 | 7.0 | 0.00 | 0.02 | 0.00 | 87 | 1012.3 |
| 20260902101404 | 82 | 0 | 5.0 | 7.0 | 0.00 | 0.02 | 0.00 | 87 | 1012.3 |
| 20260902101303 | 82 | 0 | 4.0 | 7.0 | 0.00 | 0.02 | 0.00 | 87 | 1012.2 |
| 20260902101202 | 82 | 0 | 4.0 | 7.0 | 0.00 | 0.02 | 0.00 | 87 | 1012.2 |
| 20260902101103 | 82 | 0 | 4.0 | 7.0 | 0.00 | 0.02 | 0.00 | 87 | 1012.2 |
| 20260902101005 | 82 | 0 | 5.0 | 7.0 | 0.00 | 0.02 | 0.00 | 87 | 1012.1 |
| 20260902100902 | 82 | 0 | 6.0 | 7.0 | 0.00 | 0.02 | 0.00 | 87 | 1012.1 |
| 20260902100803 | 82 | 0 | 5.0 | 7.0 | 0.00 | 0.02 | 0.00 | 87 | 1012.2 |
| 20260902100704 | 82 | 0 | 4.0 | 7.0 | 0.00 | 0.02 | 0.00 | 87 | 1012.1 |
| 20260902100603 | 82 | 0 | 4.0 | 9.0 | 0.00 | 0.02 | 0.00 | 87 | 1012.1 |
| 20260902100504 | 82 | 0 | 5.0 | 12.0 | 0.00 | 0.02 | 0.00 | 87 | 1012.0 |
| 20260902100404 | 82 | 0 | 4.0 | 12.0 | 0.00 | 0.02 | 0.00 | 87 | 1012.1 |
| 20260902100304 | 82 | 0 | 4.0 | 12.0 | 0.00 | 0.02 | 0.00 | 87 | 1012.1 |
| 20260902100204 | 82 | 0 | 5.0 | 14.0 | 0.00 | 0.02 | 0.00 | 87 | 1012.1 |
| 20260902100004 | 82 | 0 | 5.0 | 14.0 | 0.00 | 0.02 | 0.00 | 87 | 1012.1 |
| 20260902095901 | 82 | 0 | 5.0 | 14.0 | 0.00 | 0.02 | 0.00 | 87 | 1012.1 |
| 20260902095804 | 82 | 0 | 5.0 | 14.0 | 0.00 | 0.02 | 0.00 | 87 | 1012.1 |
| 20260902095703 | 82 | 0 | 7.0 | 14.0 | 0.00 | 0.02 | 0.00 | 87 | 1012.1 |
| 20260902095556 | 82 | 0 | 7.0 | 14.0 | 0.00 | 0.02 | 0.00 | 87 | 1012.1 |
| 20260902095457 | 82 | 0 | 8.0 | 14.0 | 0.00 | 0.02 | 0.00 | 87 | 1012.1 |
| 20260902095356 | 82 | 0 | 9.0 | 14.0 | 0.00 | 0.02 | 0.00 | 87 | 1012.1 |
| 20260902095257 | 82 | 0 | 6.0 | 14.0 | 0.00 | 0.02 | 0.00 | 87 | 1012.1 |
| 20260902095155 | 82 | 0 | 5.0 | 14.0 | 0.00 | 0.02 | 0.00 | 87 | 1012.0 |
| 20260902095057 | 82 | 0 | 6.0 | 14.0 | 0.00 | 0.02 | 0.00 | 87 | 1012.0 |
| 20260902094956 | 82 | 0 | 6.0 | 14.0 | 0.00 | 0.02 | 0.00 | 87 | 1012.0 |
| 20260902094855 | 82 | 0 | 6.0 | 14.0 | 0.00 | 0.02 | 0.00 | 87 | 1012.0 |
| 20260902094757 | 82 | 0 | 6.0 | 14.0 | 0.00 | 0.02 | 0.00 | 87 | 1011.9 |
| 20260902094655 | 82 | 0 | 6.0 | 14.0 | 0.00 | 0.02 | 0.00 | 87 | 1012.0 |
| 20260902094555 | 82 | 0 | 6.0 | 14.0 | 0.00 | 0.02 | 0.00 | 87 | 1012.0 |
| 20260902094456 | 82 | 0 | 9.0 | 14.0 | 0.00 | 0.02 | 0.00 | 87 | 1012.0 |
| 20260902094356 | 82 | 0 | 9.0 | 14.0 | 0.00 | 0.02 | 0.00 | 87 | 1012.0 |
| 20260902094258 | 82 | 0 | 7.0 | 11.0 | 0.00 | 0.02 | 0.00 | 87 | 1012.0 |
| 20260902094155 | 82 | 0 | 6.0 | 11.0 | 0.00 | 0.02 | 0.00 | 87 | 1012.0 |
| 20260902094056 | 82 | 0 | 7.0 | 11.0 | 0.00 | 0.02 | 0.00 | 87 | 1012.0 |
| 20260902093956 | 82 | 0 | 6.0 | 11.0 | 0.00 | 0.02 | 0.00 | 87 | 1012.0 |
| 20260902093857 | 82 | 0 | 6.0 | 11.0 | 0.00 | 0.02 | 0.00 | 87 | 1012.0 |
| 20260902093755 | 82 | 0 | 6.0 | 11.0 | 0.00 | 0.02 | 0.00 | 87 | 1012.1 |
| 20260902093657 | 82 | 0 | 6.0 | 11.0 | 0.00 | 0.02 | 0.00 | 87 | 1012.0 |
| 20260902093556 | 82 | 0 | 6.0 | 11.0 | 0.00 | 0.02 | 0.00 | 87 | 1012.1 |
| 20260902093455 | 82 | 0 | 6.0 | 11.0 | 0.00 | 0.02 | 0.00 | 87 | 1012.1 |
| 20260902093355 | 82 | 0 | 5.0 | 10.0 | 0.00 | 0.02 | 0.00 | 87 | 1012.1 |
| 20260902093256 | 82 | 0 | 6.0 | 10.0 | 0.00 | 0.02 | 0.00 | 87 | 1012.1 |
| 20260902093156 | 82 | 0 | 6.0 | 10.0 | 0.00 | 0.02 | 0.00 | 87 | 1012.2 |
| 20260902093055 | 82 | 0 | 5.0 | 10.0 | 0.00 | 0.02 | 0.00 | 87 | 1012.2 |
| 20260902092955 | 82 | 0 | 5.0 | 10.0 | 0.00 | 0.02 | 0.00 | 87 | 1012.2 |
| 20260902092856 | 82 | 0 | 4.0 | 10.0 | 0.00 | 0.02 | 0.00 | 87 | 1012.2 |
| 20260902092755 | 82 | 0 | 5.0 | 10.0 | 0.00 | 0.02 | 0.00 | 87 | 1012.2 |
| 20260902092657 | 82 | 0 | 6.0 | 10.0 | 0.00 | 0.02 | 0.00 | 87 | 1012.2 |
| 20260902092556 | 82 | 0 | 6.0 | 10.0 | 0.00 | 0.02 | 0.00 | 87 | 1012.3 |
| 20260902092455 | 82 | 0 | 5.0 | 10.0 | 0.00 | 0.02 | 0.00 | 87 | 1012.2 |
| 20260902092354 | 82 | 0 | 6.0 | 10.0 | 0.00 | 0.02 | 0.00 | 87 | 1012.2 |
| 20260902092257 | 82 | 0 | 6.0 | 10.0 | 0.00 | 0.02 | 0.00 | 86 | 1012.2 |
| 20260902092155 | 82 | 0 | 6.0 | 10.0 | 0.00 | 0.02 | 0.00 | 86 | 1012.2 |
| 20260902092055 | 82 | 0 | 6.0 | 10.0 | 0.00 | 0.02 | 0.00 | 86 | 1012.2 |
| 20260902091955 | 82 | 0 | 6.0 | 11.0 | 0.00 | 0.02 | 0.00 | 86 | 1012.2 |
| 20260902091856 | 82 | 0 | 8.0 | 12.0 | 0.00 | 0.02 | 0.00 | 86 | 1012.1 |
| 20260902091755 | 82 | 0 | 7.0 | 12.0 | 0.00 | 0.02 | 0.00 | 86 | 1012.2 |
| 20260902091655 | 82 | 0 | 6.0 | 12.0 | 0.00 | 0.02 | 0.00 | 86 | 1012.2 |
| 20260902091555 | 82 | 0 | 6.0 | 12.0 | 0.00 | 0.02 | 0.00 | 86 | 1012.2 |
| 20260902091455 | 82 | 0 | 8.0 | 12.0 | 0.00 | 0.02 | 0.00 | 86 | 1012.1 |
| 20260902091356 | 82 | 0 | 6.0 | 12.0 | 0.00 | 0.02 | 0.00 | 86 | 1012.1 |
| 20260902091255 | 82 | 0 | 6.0 | 12.0 | 0.00 | 0.02 | 0.00 | 86 | 1012.2 |
| 20260902091156 | 82 | 0 | 6.0 | 12.0 | 0.00 | 0.02 | 0.00 | 86 | 1012.1 |
| 20260902091054 | 82 | 0 | 7.0 | 12.0 | 0.00 | 0.02 | 0.00 | 86 | 1012.1 |
| 20260902090955 | 82 | 0 | 8.0 | 12.0 | 0.00 | 0.02 | 0.00 | 86 | 1012.1 |
| 20260902090854 | 82 | 0 | 7.0 | 11.0 | 0.00 | 0.02 | 0.00 | 86 | 1012.0 |
| 20260902090757 | 82 | 0 | 6.0 | 11.0 | 0.00 | 0.02 | 0.00 | 86 | 1012.1 |
| 20260902090656 | 82 | 0 | 5.0 | 9.0 | 0.00 | 0.02 | 0.00 | 86 | 1012.0 |
| 20260902090556 | 82 | 0 | 5.0 | 9.0 | 0.00 | 0.02 | 0.00 | 86 | 1012.0 |
| 20260902090455 | 82 | 0 | 5.0 | 10.0 | 0.00 | 0.02 | 0.00 | 86 | 1012.0 |
| 20260902090356 | 82 | 0 | 6.0 | 10.0 | 0.00 | 0.02 | 0.00 | 86 | 1012.0 |
| 20260902090256 | 82 | 0 | 6.0 | 10.0 | 0.00 | 0.02 | 0.00 | 86 | 1011.9 |
| 20260902090154 | 82 | 0 | 5.0 | 10.0 | 0.00 | 0.02 | 0.00 | 86 | 1011.9 |
| 20260902090055 | 82 | 0 | 6.0 | 10.0 | 0.00 | 0.02 | 0.00 | 86 | 1012.0 |
| 20260902085955 | 82 | 0 | 6.0 | 10.0 | 0.00 | 0.02 | 0.00 | 86 | 1012.0 |
| 20260902085855 | 82 | 0 | 6.0 | 10.0 | 0.00 | 0.02 | 0.00 | 86 | 1012.0 |
| 20260902085754 | 83 | 0 | 6.0 | 10.0 | 0.00 | 0.02 | 0.00 | 86 | 1012.0 |
| 20260902085654 | 82 | 0 | 7.0 | 10.0 | 0.00 | 0.02 | 0.00 | 86 | 1012.0 |
| 20260902085555 | 83 | 0 | 6.0 | 10.0 | 0.00 | 0.02 | 0.00 | 86 | 1012.0 |
| 20260902085455 | 82 | 0 | 4.0 | 10.0 | 0.00 | 0.02 | 0.00 | 86 | 1012.0 |
| 20260902085355 | 82 | 0 | 4.0 | 10.0 | 0.00 | 0.02 | 0.00 | 86 | 1012.0 |
| 20260902085254 | 83 | 0 | 5.0 | 11.0 | 0.00 | 0.02 | 0.00 | 86 | 1012.0 |
| 20260902085154 | 83 | 0 | 6.0 | 11.0 | 0.00 | 0.02 | 0.00 | 86 | 1012.0 |
| 20260902085055 | 83 | 0 | 6.0 | 11.0 | 0.00 | 0.02 | 0.00 | 86 | 1012.0 |
| 20260902084954 | 83 | 0 | 6.0 | 11.0 | 0.00 | 0.02 | 0.00 | 86 | 1012.1 |
| 20260902084854 | 83 | 0 | 7.0 | 11.0 | 0.00 | 0.02 | 0.00 | 86 | 1012.0 |
| 20260902084755 | 83 | 0 | 6.0 | 11.0 | 0.00 | 0.02 | 0.00 | 86 | 1012.0 |
| 20260902084655 | 83 | 0 | 5.0 | 11.0 | 0.00 | 0.02 | 0.00 | 86 | 1012.0 |
| 20260902084553 | 83 | 0 | 6.0 | 11.0 | 0.00 | 0.02 | 0.00 | 86 | 1012.0 |
| 20260902084453 | 83 | 0 | 7.0 | 11.0 | 0.00 | 0.02 | 0.00 | 86 | 1012.0 |
| 20260902084356 | 83 | 0 | 8.0 | 11.0 | 0.00 | 0.02 | 0.00 | 86 | 1012.0 |
| 20260902084255 | 83 | 0 | 7.0 | 10.0 | 0.00 | 0.02 | 0.00 | 86 | 1012.0 |
| 20260902084155 | 83 | 0 | 4.0 | 10.0 | 0.00 | 0.02 | 0.00 | 86 | 1012.0 |
| 20260902084055 | 83 | 0 | 4.0 | 11.0 | 0.00 | 0.02 | 0.00 | 86 | 1012.0 |
| 20260902083954 | 83 | 0 | 4.0 | 11.0 | 0.00 | 0.02 | 0.00 | 86 | 1012.0 |
| 20260902083855 | 83 | 0 | 4.0 | 11.0 | 0.00 | 0.02 | 0.00 | 86 | 1012.0 |
| 20260902083755 | 83 | 0 | 4.0 | 11.0 | 0.00 | 0.02 | 0.00 | 86 | 1012.1 |
| 20260902083655 | 83 | 0 | 6.0 | 11.0 | 0.00 | 0.02 | 0.00 | 86 | 1012.0 |
| 20260902083554 | 83 | 0 | 6.0 | 11.0 | 0.00 | 0.02 | 0.00 | 86 | 1012.1 |
| 20260902083453 | 83 | 0 | 5.0 | 11.0 | 0.00 | 0.02 | 0.00 | 85 | 1012.1 |
| 20260902083354 | 83 | 0 | 5.0 | 11.0 | 0.00 | 0.02 | 0.00 | 85 | 1012.1 |
| 20260902083253 | 83 | 0 | 7.0 | 11.0 | 0.00 | 0.02 | 0.00 | 85 | 1012.1 |
| 20260902083154 | 83 | 0 | 7.0 | 11.0 | 0.00 | 0.02 | 0.00 | 85 | 1012.2 |
| 20260902083054 | 83 | 0 | 7.0 | 10.0 | 0.00 | 0.02 | 0.00 | 85 | 1012.2 |
| 20260902082954 | 83 | 0 | 6.0 | 10.0 | 0.00 | 0.02 | 0.00 | 85 | 1012.1 |
| 20260902082853 | 83 | 0 | 6.0 | 10.0 | 0.00 | 0.02 | 0.00 | 85 | 1012.2 |
| 20260902082754 | 83 | 0 | 5.0 | 10.0 | 0.00 | 0.02 | 0.00 | 85 | 1012.2 |
| 20260902082654 | 83 | 0 | 4.0 | 10.0 | 0.00 | 0.02 | 0.00 | 85 | 1012.1 |
| 20260902082555 | 83 | 0 | 6.0 | 10.0 | 0.00 | 0.02 | 0.00 | 85 | 1012.1 |
| 20260902082454 | 83 | 0 | 6.0 | 10.0 | 0.00 | 0.02 | 0.00 | 85 | 1012.1 |
| 20260902082355 | 83 | 0 | 6.0 | 10.0 | 0.00 | 0.02 | 0.00 | 85 | 1012.2 |
| 20260902082255 | 83 | 0 | 6.0 | 10.0 | 0.00 | 0.02 | 0.00 | 85 | 1012.2 |
| 20260902082154 | 83 | 0 | 5.0 | 10.0 | 0.00 | 0.02 | 0.00 | 85 | 1012.1 |
| 20260902082053 | 83 | 0 | 6.0 | 11.0 | 0.00 | 0.02 | 0.00 | 85 | 1012.1 |
| 20260902081955 | 83 | 0 | 7.0 | 11.0 | 0.00 | 0.02 | 0.00 | 85 | 1012.2 |
| 20260902081854 | 83 | 0 | 6.0 | 11.0 | 0.00 | 0.02 | 0.00 | 85 | 1012.2 |
| 20260902081753 | 83 | 0 | 5.0 | 11.0 | 0.00 | 0.02 | 0.00 | 85 | 1012.1 |
| 20260902081654 | 83 | 0 | 4.0 | 11.0 | 0.00 | 0.02 | 0.00 | 85 | 1012.2 |
| 20260902081556 | 83 | 0 | 4.0 | 11.0 | 0.00 | 0.02 | 0.00 | 85 | 1012.1 |
| 20260902081455 | 83 | 0 | 3.0 | 11.0 | 0.00 | 0.02 | 0.00 | 85 | 1012.2 |
| 20260902081353 | 83 | 0 | 3.0 | 11.0 | 0.00 | 0.02 | 0.00 | 85 | 1012.1 |
| 20260902081253 | 83 | 0 | 6.0 | 11.0 | 0.00 | 0.02 | 0.00 | 85 | 1012.2 |
| 20260902081153 | 83 | 0 | 6.0 | 11.0 | 0.00 | 0.02 | 0.00 | 85 | 1012.2 |
| 20260902081054 | 83 | 0 | 4.0 | 10.0 | 0.00 | 0.02 | 0.00 | 85 | 1012.2 |
| 20260902080953 | 83 | 0 | 4.0 | 10.0 | 0.00 | 0.02 | 0.00 | 85 | 1012.2 |
| 20260902080854 | 83 | 0 | 5.0 | 10.0 | 0.00 | 0.02 | 0.00 | 85 | 1012.1 |
| 20260902080754 | 83 | 0 | 6.0 | 10.0 | 0.00 | 0.02 | 0.00 | 85 | 1012.1 |
| 20260902080653 | 83 | 0 | 6.0 | 10.0 | 0.00 | 0.02 | 0.00 | 85 | 1012.2 |
| 20260902080554 | 83 | 0 | 6.0 | 10.0 | 0.00 | 0.02 | 0.00 | 85 | 1012.1 |
| 20260902080453 | 83 | 0 | 6.0 | 10.0 | 0.00 | 0.02 | 0.00 | 85 | 1012.1 |
| 20260902080354 | 83 | 0 | 5.0 | 10.0 | 0.00 | 0.02 | 0.00 | 85 | 1012.1 |
| 20260902080254 | 83 | 0 | 4.0 | 9.0 | 0.00 | 0.02 | 0.00 | 85 | 1012.1 |
| 20260902080152 | 83 | 0 | 4.0 | 9.0 | 0.00 | 0.02 | 0.00 | 85 | 1012.1 |
| 20260902080053 | 83 | 0 | 2.0 | 10.0 | 0.00 | 0.02 | 0.00 | 84 | 1012.1 |
| 20260902075954 | 83 | 0 | 5.0 | 10.0 | 0.00 | 0.02 | 0.00 | 84 | 1012.1 |
| 20260902075854 | 83 | 0 | 5.0 | 10.0 | 0.00 | 0.02 | 0.00 | 84 | 1012.1 |
| 20260902075754 | 83 | 0 | 5.0 | 11.0 | 0.00 | 0.02 | 0.00 | 84 | 1012.1 |
| 20260902075654 | 83 | 0 | 5.0 | 11.0 | 0.00 | 0.02 | 0.00 | 84 | 1012.1 |
| 20260902075554 | 83 | 0 | 6.0 | 11.0 | 0.00 | 0.02 | 0.00 | 84 | 1012.1 |
| 20260902075454 | 83 | 0 | 5.0 | 11.0 | 0.00 | 0.02 | 0.00 | 84 | 1012.1 |
| 20260902075352 | 83 | 0 | 5.0 | 11.0 | 0.00 | 0.02 | 0.00 | 84 | 1012.2 |
| 20260902075253 | 83 | 0 | 6.0 | 11.0 | 0.00 | 0.02 | 0.00 | 84 | 1012.2 |
| 20260902075153 | 83 | 0 | 6.0 | 11.0 | 0.00 | 0.02 | 0.00 | 84 | 1012.2 |
| 20260902075052 | 83 | 0 | 6.0 | 11.0 | 0.00 | 0.02 | 0.00 | 84 | 1012.1 |
| 20260902074952 | 83 | 0 | 6.0 | 11.0 | 0.00 | 0.02 | 0.00 | 84 | 1012.1 |
| 20260902074852 | 83 | 0 | 6.0 | 11.0 | 0.00 | 0.02 | 0.00 | 84 | 1012.2 |
| 20260902074753 | 83 | 0 | 6.0 | 11.0 | 0.00 | 0.02 | 0.00 | 84 | 1012.2 |
| 20260902074655 | 83 | 0 | 4.0 | 11.0 | 0.00 | 0.02 | 0.00 | 84 | 1012.2 |
| 20260902074552 | 83 | 0 | 4.0 | 11.0 | 0.00 | 0.02 | 0.00 | 84 | 1012.2 |
| 20260902074452 | 83 | 0 | 6.0 | 11.0 | 0.00 | 0.02 | 0.00 | 84 | 1012.2 |
| 20260902074352 | 83 | 0 | 7.0 | 11.0 | 0.00 | 0.02 | 0.00 | 84 | 1012.2 |
| 20260902074252 | 83 | 0 | 5.0 | 10.0 | 0.00 | 0.02 | 0.00 | 84 | 1012.2 |
| 20260902074153 | 83 | 0 | 5.0 | 9.0 | 0.00 | 0.02 | 0.00 | 84 | 1012.2 |
| 20260902074052 | 83 | 0 | 6.0 | 9.0 | 0.00 | 0.02 | 0.00 | 84 | 1012.2 |
| 20260902073952 | 83 | 0 | 6.0 | 9.0 | 0.00 | 0.02 | 0.00 | 84 | 1012.2 |
| 20260902073852 | 83 | 0 | 5.0 | 9.0 | 0.00 | 0.02 | 0.00 | 84 | 1012.2 |
| 20260902073752 | 83 | 0 | 6.0 | 9.0 | 0.00 | 0.02 | 0.00 | 84 | 1012.2 |
| 20260902073653 | 83 | 0 | 5.0 | 9.0 | 0.00 | 0.02 | 0.00 | 84 | 1012.3 |
| 20260902073553 | 83 | 0 | 4.0 | 5.0 | 0.00 | 0.02 | 0.00 | 84 | 1012.3 |
| 20260902073454 | 83 | 0 | 5.0 | 5.0 | 0.00 | 0.02 | 0.00 | 84 | 1012.2 |
| 20260902073354 | 0 | 0.0 | 0.0 | 0.00 | 0.02 | 0.00 | 1012.3 | ||
| 20260902073253 | 0 | 0.0 | 0.0 | 0.00 | 0.02 | 0.00 | 1012.2 | ||
| 20260902073154 | 0 | 0.0 | 0.0 | 0.00 | 0.02 | 0.00 | 1012.3 | ||
| 20260902073052 | 0 | 0.0 | 0.0 | 0.00 | 0.02 | 0.00 | 1012.3 | ||
| 20260902072951 | 0 | 0 | 3.0 | 3.0 | 0.00 | 0.02 | 0.00 | 1012.4 | |
| 20260902072833 | 83 | 0 | 3.0 | 3.0 | 0.00 | 0.02 | 0.00 | 84 | 1012.3 |
| 20260902072731 | 83 | 0 | 3.0 | 4.0 | 0.00 | 0.02 | 0.00 | 84 | 1012.3 |
| 20260902072632 | 83 | 0 | 3.0 | 4.0 | 0.00 | 0.02 | 0.00 | 84 | 1012.3 |
| 20260902072532 | 83 | 0 | 3.0 | 4.0 | 0.00 | 0.02 | 0.00 | 84 | 1012.4 |
| 20260902072432 | 83 | 0 | 3.0 | 4.0 | 0.00 | 0.02 | 0.00 | 84 | 1012.3 |
| 20260902072332 | 83 | 0 | 3.0 | 4.0 | 0.00 | 0.02 | 0.00 | 84 | 1012.4 |
| 20260902072232 | 83 | 0 | 3.0 | 6.0 | 0.00 | 0.02 | 0.00 | 84 | 1012.3 |
| 20260902072132 | 83 | 0 | 3.0 | 7.0 | 0.00 | 0.02 | 0.00 | 84 | 1012.4 |
| 20260902072033 | 83 | 0 | 3.0 | 7.0 | 0.00 | 0.02 | 0.00 | 84 | 1012.3 |
| 20260902071932 | 83 | 0 | 3.0 | 7.0 | 0.00 | 0.02 | 0.00 | 84 | 1012.4 |
| 20260902071831 | 83 | 0 | 3.0 | 7.0 | 0.00 | 0.02 | 0.00 | 84 | 1012.3 |
| 20260902071731 | 83 | 0 | 3.0 | 7.0 | 0.00 | 0.02 | 0.00 | 84 | 1012.3 |
| 20260902071632 | 83 | 0 | 5.0 | 7.0 | 0.00 | 0.02 | 0.00 | 84 | 1012.3 |
| 20260902071532 | 83 | 0 | 5.0 | 7.0 | 0.00 | 0.02 | 0.00 | 84 | 1012.3 |
| 20260902071432 | 83 | 0 | 5.0 | 7.0 | 0.00 | 0.02 | 0.00 | 84 | 1012.2 |
| 20260902071332 | 83 | 0 | 5.0 | 7.0 | 0.00 | 0.02 | 0.00 | 84 | 1012.3 |
| 20260902071232 | 83 | 0 | 4.0 | 7.0 | 0.00 | 0.02 | 0.00 | 84 | 1012.2 |
| 20260902071132 | 83 | 0 | 4.0 | 6.0 | 0.00 | 0.02 | 0.00 | 84 | 1012.3 |
| 20260902071032 | 83 | 0 | 4.0 | 6.0 | 0.00 | 0.02 | 0.00 | 84 | 1012.2 |
| 20260902070933 | 83 | 0 | 4.0 | 6.0 | 0.00 | 0.02 | 0.00 | 83 | 1012.2 |
| 20260902070832 | 83 | 0 | 4.0 | 6.0 | 0.00 | 0.02 | 0.00 | 83 | 1012.2 |
| 20260902070731 | 83 | 0 | 3.0 | 6.0 | 0.00 | 0.02 | 0.00 | 83 | 1012.2 |
| 20260902070631 | 83 | 0 | 4.0 | 6.0 | 0.00 | 0.02 | 0.00 | 83 | 1012.2 |
| 20260902070532 | 83 | 0 | 4.0 | 6.0 | 0.00 | 0.02 | 0.00 | 83 | 1012.2 |
| 20260902070431 | 83 | 0 | 4.0 | 9.0 | 0.00 | 0.02 | 0.00 | 83 | 1012.2 |
| 20260902070332 | 83 | 0 | 3.0 | 9.0 | 0.00 | 0.02 | 0.00 | 83 | 1012.2 |
| 20260902070232 | 83 | 0 | 3.0 | 9.0 | 0.00 | 0.02 | 0.00 | 83 | 1012.2 |
| 20260902070105 | 83 | 0 | 3.0 | 9.0 | 0.00 | 0.02 | 0.00 | 83 | 1012.1 |
| 20260902070004 | 83 | 0 | 4.0 | 9.0 | 0.00 | 0.02 | 0.00 | 83 | 1012.2 |
| 20260902065903 | 83 | 0 | 5.0 | 9.0 | 0.00 | 0.02 | 0.00 | 83 | 1012.1 |
| 20260902065802 | 83 | 0 | 4.0 | 9.0 | 0.00 | 0.02 | 0.00 | 83 | 1012.2 |
| 20260902065704 | 83 | 0 | 4.0 | 9.0 | 0.00 | 0.02 | 0.00 | 83 | 1012.1 |
| 20260902065602 | 83 | 0 | 5.0 | 9.0 | 0.00 | 0.02 | 0.00 | 83 | 1012.2 |
| 20260902065505 | 83 | 0 | 5.0 | 9.0 | 0.00 | 0.02 | 0.00 | 83 | 1012.2 |
| 20260902065404 | 83 | 0 | 5.0 | 7.0 | 0.00 | 0.02 | 0.00 | 82 | 1012.2 |
| 20260902065306 | 83 | 0 | 5.0 | 7.0 | 0.00 | 0.02 | 0.00 | 82 | 1012.1 |
| 20260902065202 | 83 | 0 | 5.0 | 9.0 | 0.00 | 0.02 | 0.00 | 82 | 1012.2 |
| 20260902065103 | 83 | 0 | 6.0 | 9.0 | 0.00 | 0.02 | 0.00 | 82 | 1012.2 |
| 20260902065004 | 83 | 0 | 5.0 | 9.0 | 0.00 | 0.02 | 0.00 | 82 | 1012.1 |
| 20260902064902 | 83 | 0 | 5.0 | 9.0 | 0.00 | 0.02 | 0.00 | 82 | 1012.1 |
| 20260902064802 | 83 | 0 | 4.0 | 9.0 | 0.00 | 0.02 | 0.00 | 82 | 1012.1 |
| 20260902064702 | 83 | 0 | 4.0 | 9.0 | 0.00 | 0.02 | 0.00 | 82 | 1012.1 |
| 20260902064604 | 83 | 0 | 4.0 | 9.0 | 0.00 | 0.02 | 0.00 | 82 | 1012.1 |
| 20260902064505 | 83 | 0 | 4.0 | 9.0 | 0.00 | 0.02 | 0.00 | 82 | 1012.1 |
| 20260902064403 | 83 | 0 | 5.0 | 9.0 | 0.00 | 0.02 | 0.00 | 82 | 1012.1 |
| 20260902064304 | 83 | 0 | 6.0 | 9.0 | 0.00 | 0.02 | 0.00 | 82 | 1012.1 |
| 20260902064203 | 83 | 0 | 5.0 | 7.0 | 0.00 | 0.02 | 0.00 | 82 | 1012.1 |
| 20260902064102 | 83 | 0 | 5.0 | 7.0 | 0.00 | 0.02 | 0.00 | 81 | 1012.1 |
| 20260902064005 | 83 | 0 | 3.0 | 5.0 | 0.00 | 0.02 | 0.00 | 81 | 1012.2 |
| 20260902063903 | 83 | 0 | 3.0 | 5.0 | 0.00 | 0.02 | 0.00 | 81 | 1012.2 |
| 20260902063804 | 83 | 0 | 3.0 | 5.0 | 0.00 | 0.02 | 0.00 | 81 | 1012.1 |
| 20260902063702 | 83 | 0 | 3.0 | 5.0 | 0.00 | 0.02 | 0.00 | 81 | 1012.1 |
| 20260902063602 | 83 | 0 | 4.0 | 6.0 | 0.00 | 0.02 | 0.00 | 81 | 1012.1 |
| 20260902063503 | 83 | 0 | 5.0 | 6.0 | 0.00 | 0.02 | 0.00 | 81 | 1012.1 |
| 20260902063402 | 83 | 0 | 5.0 | 6.0 | 0.00 | 0.02 | 0.00 | 80 | 1012.2 |
| 20260902063305 | 83 | 0 | 3.0 | 6.0 | 0.00 | 0.02 | 0.00 | 80 | 1012.2 |
| 20260902063203 | 83 | 0 | 3.0 | 6.0 | 0.00 | 0.02 | 0.00 | 80 | 1012.2 |
| 20260902063104 | 83 | 0 | 3.0 | 6.0 | 0.00 | 0.02 | 0.00 | 80 | 1012.2 |
| 20260902063004 | 83 | 0 | 3.0 | 6.0 | 0.00 | 0.02 | 0.00 | 80 | 1012.2 |
| 20260902062904 | 83 | 0 | 4.0 | 6.0 | 0.00 | 0.02 | 0.00 | 80 | 1012.1 |
| 20260902062803 | 83 | 0 | 4.0 | 6.0 | 0.00 | 0.02 | 0.00 | 79 | 1012.1 |
| 20260902062703 | 83 | 0 | 4.0 | 6.0 | 0.00 | 0.02 | 0.00 | 79 | 1012.1 |
| 20260902062603 | 83 | 0 | 4.0 | 6.0 | 0.00 | 0.02 | 0.00 | 79 | 1012.2 |
| 20260902062503 | 83 | 0 | 5.0 | 6.0 | 0.00 | 0.02 | 0.00 | 79 | 1012.1 |
| 20260902062402 | 83 | 0 | 4.0 | 6.0 | 0.00 | 0.02 | 0.00 | 79 | 1012.1 |
| 20260902062306 | 83 | 0 | 4.0 | 5.0 | 0.00 | 0.02 | 0.00 | 79 | 1012.0 |
| 20260902062202 | 83 | 0 | 3.0 | 5.0 | 0.00 | 0.02 | 0.00 | 79 | 1012.1 |
| 20260902062104 | 83 | 0 | 4.0 | 5.0 | 0.00 | 0.02 | 0.00 | 79 | 1012.0 |
| 20260902062002 | 83 | 0 | 4.0 | 5.0 | 0.00 | 0.02 | 0.00 | 79 | 1012.0 |
| 20260902061903 | 83 | 0 | 4.0 | 5.0 | 0.00 | 0.02 | 0.00 | 79 | 1012.0 |
| 20260902061802 | 83 | 0 | 3.0 | 5.0 | 0.00 | 0.02 | 0.00 | 79 | 1012.0 |
| 20260902061702 | 83 | 0 | 3.0 | 5.0 | 0.00 | 0.02 | 0.00 | 79 | 1012.1 |
| 20260902061602 | 83 | 0 | 3.0 | 5.0 | 0.00 | 0.02 | 0.00 | 78 | 1012.1 |
| 20260902061503 | 83 | 0 | 3.0 | 5.0 | 0.00 | 0.02 | 0.00 | 78 | 1012.2 |
| 20260902061404 | 83 | 0 | 2.0 | 3.0 | 0.00 | 0.02 | 0.00 | 78 | 1012.1 |
| 20260902061302 | 83 | 0 | 2.0 | 4.0 | 0.00 | 0.02 | 0.00 | 78 | 1012.2 |
| 20260902061204 | 83 | 0 | 2.0 | 4.0 | 0.00 | 0.02 | 0.00 | 78 | 1012.2 |
| 20260902061103 | 83 | 0 | 2.0 | 4.0 | 0.00 | 0.02 | 0.00 | 78 | 1012.2 |
| 20260902061003 | 83 | 0 | 2.0 | 5.0 | 0.00 | 0.02 | 0.00 | 78 | 1012.1 |
| 20260902060902 | 83 | 0 | 1.0 | 5.0 | 0.00 | 0.02 | 0.00 | 78 | 1012.2 |
| 20260902060802 | 83 | 0 | 1.0 | 5.0 | 0.00 | 0.02 | 0.00 | 78 | 1012.1 |
| 20260902060701 | 83 | 0 | 1.0 | 5.0 | 0.00 | 0.02 | 0.00 | 78 | 1012.1 |
| 20260902060603 | 83 | 0 | 1.0 | 5.0 | 0.00 | 0.02 | 0.00 | 78 | 1012.1 |
| 20260902060454 | 83 | 0 | 2.0 | 5.0 | 0.00 | 0.02 | 0.00 | 78 | 1012.0 |
| 20260902060354 | 83 | 0 | 3.0 | 5.0 | 0.00 | 0.02 | 0.00 | 78 | 1012.1 |
| 20260902060249 | 83 | 0 | 3.0 | 5.0 | 0.00 | 0.02 | 0.00 | 78 | 1012.0 |
| 20260902060148 | 82 | 0 | 4.0 | 6.0 | 0.00 | 0.02 | 0.00 | 78 | 1012.0 |
| 20260902060046 | 82 | 0 | 3.0 | 6.0 | 0.00 | 0.02 | 0.00 | 78 | 1012.0 |
| 20260902055942 | 82 | 0 | 2.0 | 6.0 | 0.00 | 0.02 | 0.00 | 78 | 1012.0 |
| 20260902055834 | 82 | 0 | 3.0 | 6.0 | 0.00 | 0.02 | 0.00 | 78 | 1011.9 |
| 20260902055732 | 82 | 0 | 3.0 | 6.0 | 0.00 | 0.02 | 0.00 | 78 | 1011.9 |
| 20260902055632 | 82 | 0 | 3.0 | 6.0 | 0.00 | 0.02 | 0.00 | 78 | 1011.9 |
| 20260902055531 | 82 | 0 | 3.0 | 6.0 | 0.00 | 0.02 | 0.00 | 78 | 1011.9 |
| 20260902055432 | 82 | 0 | 4.0 | 6.0 | 0.00 | 0.02 | 0.00 | 78 | 1012.0 |
| 20260902055331 | 82 | 0 | 4.0 | 6.0 | 0.00 | 0.02 | 0.00 | 78 | 1011.9 |
| 20260902055231 | 82 | 0 | 3.0 | 6.0 | 0.00 | 0.02 | 0.00 | 78 | 1012.0 |
| 20260902055133 | 82 | 0 | 4.0 | 6.0 | 0.00 | 0.02 | 0.00 | 78 | 1012.0 |
| 20260902055032 | 82 | 0 | 4.0 | 6.0 | 0.00 | 0.02 | 0.00 | 79 | 1012.0 |
| 20260902054931 | 82 | 0 | 3.0 | 6.0 | 0.00 | 0.02 | 0.00 | 79 | 1011.9 |
| 20260902054832 | 82 | 0 | 4.0 | 7.0 | 0.00 | 0.02 | 0.00 | 79 | 1012.0 |
| 20260902054731 | 82 | 0 | 4.0 | 7.0 | 0.00 | 0.02 | 0.00 | 79 | 1012.0 |
| 20260902054632 | 82 | 0 | 4.0 | 7.0 | 0.00 | 0.02 | 0.00 | 79 | 1012.0 |
| 20260902054524 | 82 | 0 | 4.0 | 7.0 | 0.00 | 0.02 | 0.00 | 79 | 1011.9 |
| 20260902054419 | 82 | 0 | 4.0 | 7.0 | 0.00 | 0.02 | 0.00 | 79 | 1012.0 |
| 20260902054309 | 82 | 0 | 5.0 | 7.0 | 0.00 | 0.02 | 0.00 | 79 | 1012.0 |
| 20260902054208 | 82 | 0 | 5.0 | 7.0 | 0.00 | 0.02 | 0.00 | 79 | 1012.0 |
| 20260902054107 | 82 | 0 | 5.0 | 7.0 | 0.00 | 0.02 | 0.00 | 79 | 1012.0 |
| 20260902054003 | 82 | 0 | 5.0 | 7.0 | 0.00 | 0.02 | 0.00 | 79 | 1011.9 |
| 20260902053903 | 82 | 0 | 5.0 | 7.0 | 0.00 | 0.02 | 0.00 | 79 | 1011.9 |
| 20260902053803 | 82 | 0 | 4.0 | 7.0 | 0.00 | 0.02 | 0.00 | 79 | 1012.0 |
| 20260902053703 | 82 | 0 | 3.0 | 6.0 | 0.00 | 0.02 | 0.00 | 79 | 1011.9 |
| 20260902053603 | 82 | 0 | 4.0 | 6.0 | 0.00 | 0.02 | 0.00 | 79 | 1011.9 |
| 20260902053505 | 82 | 0 | 5.0 | 6.0 | 0.00 | 0.02 | 0.00 | 79 | 1011.9 |
| 20260902053403 | 82 | 0 | 2.0 | 5.0 | 0.00 | 0.02 | 0.00 | 79 | 1011.9 |
| 20260902053304 | 82 | 0 | 2.0 | 5.0 | 0.00 | 0.02 | 0.00 | 79 | 1012.0 |
| 20260902053203 | 82 | 0 | 4.0 | 5.0 | 0.00 | 0.02 | 0.00 | 79 | 1011.9 |
| 20260902053104 | 82 | 0 | 4.0 | 5.0 | 0.00 | 0.02 | 0.00 | 79 | 1011.9 |
| 20260902053003 | 82 | 0 | 4.0 | 5.0 | 0.00 | 0.02 | 0.00 | 79 | 1011.9 |
| 20260902052903 | 82 | 0 | 4.0 | 5.0 | 0.00 | 0.02 | 0.00 | 79 | 1011.9 |
| 20260902052804 | 82 | 0 | 4.0 | 5.0 | 0.00 | 0.02 | 0.00 | 79 | 1011.9 |
| 20260902052702 | 82 | 0 | 4.0 | 5.0 | 0.00 | 0.02 | 0.00 | 79 | 1012.0 |
| 20260902052602 | 82 | 0 | 4.0 | 5.0 | 0.00 | 0.02 | 0.00 | 79 | 1011.9 |
| 20260902052502 | 82 | 0 | 4.0 | 5.0 | 0.00 | 0.02 | 0.00 | 79 | 1011.9 |
| 20260902052402 | 82 | 0 | 4.0 | 5.0 | 0.00 | 0.02 | 0.00 | 79 | 1012.0 |
| 20260902052306 | 82 | 0 | 2.0 | 5.0 | 0.00 | 0.02 | 0.00 | 79 | 1011.9 |
| 20260902052204 | 82 | 0 | 2.0 | 5.0 | 0.00 | 0.02 | 0.00 | 79 | 1011.9 |
| 20260902052103 | 82 | 0 | 2.0 | 5.0 | 0.00 | 0.02 | 0.00 | 79 | 1012.0 |
| 20260902052004 | 82 | 0 | 2.0 | 5.0 | 0.00 | 0.02 | 0.00 | 79 | 1012.1 |
| 20260902051903 | 82 | 0 | 4.0 | 5.0 | 0.00 | 0.02 | 0.00 | 79 | 1012.1 |
| 20260902051804 | 82 | 0 | 4.0 | 5.0 | 0.00 | 0.02 | 0.00 | 79 | 1012.0 |
| 20260902051704 | 82 | 0 | 4.0 | 5.0 | 0.00 | 0.02 | 0.00 | 79 | 1012.0 |
| 20260902051603 | 82 | 0 | 4.0 | 5.0 | 0.00 | 0.02 | 0.00 | 79 | 1012.0 |
| 20260902051503 | 82 | 0 | 3.0 | 5.0 | 0.00 | 0.02 | 0.00 | 79 | 1012.0 |
| 20260902051402 | 82 | 0 | 3.0 | 5.0 | 0.00 | 0.02 | 0.00 | 79 | 1012.0 |
| 20260902051303 | 82 | 0 | 3.0 | 5.0 | 0.00 | 0.02 | 0.00 | 79 | 1012.1 |
| 20260902051203 | 82 | 0 | 2.0 | 5.0 | 0.00 | 0.02 | 0.00 | 80 | 1012.1 |
| 20260902051103 | 82 | 0 | 3.0 | 5.0 | 0.00 | 0.02 | 0.00 | 80 | 1012.0 |
| 20260902051002 | 82 | 0 | 3.0 | 5.0 | 0.00 | 0.02 | 0.00 | 80 | 1012.1 |
| 20260902050903 | 82 | 0 | 2.0 | 5.0 | 0.00 | 0.02 | 0.00 | 80 | 1012.1 |
| 20260902050802 | 82 | 0 | 2.0 | 5.0 | 0.00 | 0.02 | 0.00 | 80 | 1012.1 |
| 20260902050703 | 82 | 0 | 2.0 | 5.0 | 0.00 | 0.02 | 0.00 | 80 | 1012.2 |
| 20260902050603 | 82 | 0 | 3.0 | 5.0 | 0.00 | 0.02 | 0.00 | 80 | 1012.2 |
| 20260902050505 | 82 | 0 | 3.0 | 5.0 | 0.00 | 0.02 | 0.00 | 80 | 1012.2 |
| 20260902050404 | 82 | 0 | 4.0 | 5.0 | 0.00 | 0.02 | 0.00 | 80 | 1012.2 |
| 20260902050303 | 82 | 0 | 4.0 | 5.0 | 0.00 | 0.02 | 0.00 | 80 | 1012.2 |
| 20260902050202 | 82 | 0 | 3.0 | 5.0 | 0.00 | 0.02 | 0.00 | 80 | 1012.2 |
| 20260902050104 | 82 | 0 | 3.0 | 5.0 | 0.00 | 0.02 | 0.00 | 80 | 1012.2 |
| 20260902050006 | 82 | 0 | 4.0 | 5.0 | 0.00 | 0.02 | 0.00 | 80 | 1012.2 |
| 20260902045902 | 82 | 0 | 4.0 | 5.0 | 0.00 | 0.02 | 0.02 | 80 | 1012.2 |
| 20260902045803 | 82 | 0 | 4.0 | 5.0 | 0.00 | 0.02 | 0.02 | 80 | 1012.2 |
| 20260902045704 | 82 | 0 | 3.0 | 4.0 | 0.00 | 0.02 | 0.02 | 80 | 1012.2 |
| 20260902045604 | 82 | 0 | 3.0 | 5.0 | 0.00 | 0.02 | 0.02 | 80 | 1012.3 |
| 20260902045503 | 82 | 0 | 2.0 | 5.0 | 0.00 | 0.02 | 0.02 | 80 | 1012.3 |
| 20260902045403 | 82 | 0 | 2.0 | 5.0 | 0.00 | 0.02 | 0.02 | 80 | 1012.3 |
| 20260902045306 | 82 | 0 | 2.0 | 5.0 | 0.00 | 0.02 | 0.02 | 80 | 1012.4 |
| 20260902045203 | 82 | 0 | 2.0 | 5.0 | 0.00 | 0.02 | 0.02 | 80 | 1012.3 |
| 20260902045103 | 82 | 0 | 2.0 | 5.0 | 0.00 | 0.02 | 0.02 | 80 | 1012.3 |
| 20260902045004 | 82 | 0 | 2.0 | 5.0 | 0.00 | 0.02 | 0.02 | 80 | 1012.4 |
| 20260902044902 | 82 | 0 | 3.0 | 5.0 | 0.00 | 0.02 | 0.02 | 80 | 1012.4 |
| 20260902044802 | 82 | 0 | 3.0 | 5.0 | 0.00 | 0.02 | 0.02 | 80 | 1012.3 |
| 20260902044702 | 82 | 0 | 4.0 | 5.0 | 0.00 | 0.02 | 0.02 | 80 | 1012.3 |
| 20260902044603 | 82 | 0 | 4.0 | 5.0 | 0.00 | 0.02 | 0.02 | 80 | 1012.4 |
| 20260902044502 | 82 | 0 | 4.0 | 5.0 | 0.00 | 0.02 | 0.02 | 80 | 1012.3 |
| 20260902044403 | 82 | 0 | 4.0 | 5.0 | 0.00 | 0.02 | 0.02 | 80 | 1012.2 |
| 20260902044303 | 82 | 0 | 4.0 | 5.0 | 0.00 | 0.02 | 0.02 | 80 | 1012.3 |
| 20260902044203 | 82 | 0 | 4.0 | 5.0 | 0.00 | 0.02 | 0.02 | 80 | 1012.2 |
| 20260902044103 | 82 | 0 | 4.0 | 5.0 | 0.00 | 0.02 | 0.02 | 80 | 1012.3 |
| 20260902043958 | 82 | 0 | 3.0 | 5.0 | 0.00 | 0.02 | 0.02 | 80 | 1012.3 |
| 20260902043859 | 82 | 0 | 4.0 | 5.0 | 0.00 | 0.02 | 0.02 | 80 | 1012.4 |
| 20260902043746 | 82 | 0 | 4.0 | 5.0 | 0.00 | 0.02 | 0.02 | 80 | 1012.3 |
| 20260902043645 | 82 | 0 | 4.0 | 5.0 | 0.00 | 0.02 | 0.02 | 80 | 1012.4 |
| 20260902043544 | 82 | 0 | 4.0 | 5.0 | 0.00 | 0.02 | 0.02 | 80 | 1012.4 |
| 20260902043445 | 82 | 0 | 3.0 | 4.0 | 0.00 | 0.02 | 0.02 | 80 | 1012.4 |
| 20260902043344 | 82 | 0 | 3.0 | 4.0 | 0.00 | 0.02 | 0.02 | 80 | 1012.4 |
| 20260902043245 | 82 | 0 | 1.0 | 4.0 | 0.00 | 0.02 | 0.02 | 80 | 1012.3 |
| 20260902043145 | 82 | 0 | 0.0 | 4.0 | 0.00 | 0.02 | 0.02 | 80 | 1012.4 |
| 20260902043044 | 82 | 0 | 0.0 | 4.0 | 0.00 | 0.02 | 0.02 | 80 | 1012.4 |
| 20260902042944 | 82 | 0 | 0.0 | 4.0 | 0.00 | 0.02 | 0.02 | 80 | 1012.4 |
| 20260902042844 | 82 | 0 | 0.0 | 4.0 | 0.00 | 0.02 | 0.02 | 80 | 1012.4 |
| 20260902042746 | 82 | 0 | 1.0 | 4.0 | 0.00 | 0.02 | 0.02 | 80 | 1012.4 |
| 20260902042644 | 82 | 0 | 2.0 | 4.0 | 0.00 | 0.02 | 0.02 | 80 | 1012.4 |
| 20260902042545 | 82 | 0 | 2.0 | 4.0 | 0.00 | 0.02 | 0.02 | 80 | 1012.5 |
| 20260902042446 | 82 | 0 | 2.0 | 4.0 | 0.00 | 0.02 | 0.02 | 80 | 1012.4 |
| 20260902042346 | 82 | 0 | 2.0 | 4.0 | 0.00 | 0.02 | 0.02 | 80 | 1012.4 |
| 20260902042244 | 82 | 0 | 2.0 | 4.0 | 0.00 | 0.02 | 0.02 | 80 | 1012.4 |
| 20260902042145 | 82 | 0 | 2.0 | 4.0 | 0.00 | 0.02 | 0.02 | 81 | 1012.5 |
| 20260902042044 | 82 | 0 | 2.0 | 4.0 | 0.00 | 0.02 | 0.02 | 81 | 1012.4 |
| 20260902041945 | 82 | 0 | 2.0 | 4.0 | 0.00 | 0.02 | 0.02 | 81 | 1012.5 |
| 20260902041844 | 82 | 0 | 2.0 | 4.0 | 0.00 | 0.02 | 0.02 | 81 | 1012.4 |
| 20260902041746 | 82 | 0 | 2.0 | 4.0 | 0.00 | 0.02 | 0.02 | 81 | 1012.5 |
| 20260902041644 | 82 | 0 | 2.0 | 4.0 | 0.00 | 0.02 | 0.02 | 81 | 1012.4 |
| 20260902041544 | 82 | 0 | 3.0 | 4.0 | 0.00 | 0.02 | 0.02 | 81 | 1012.4 |
| 20260902041446 | 82 | 0 | 3.0 | 4.0 | 0.00 | 0.02 | 0.02 | 81 | 1012.5 |
| 20260902041345 | 82 | 0 | 2.0 | 5.0 | 0.00 | 0.02 | 0.02 | 81 | 1012.4 |
| 20260902041245 | 82 | 0 | 2.0 | 5.0 | 0.00 | 0.02 | 0.02 | 81 | 1012.4 |
| 20260902041144 | 82 | 0 | 3.0 | 5.0 | 0.00 | 0.02 | 0.02 | 81 | 1012.4 |
| 20260902041047 | 82 | 0 | 3.0 | 5.0 | 0.00 | 0.02 | 0.02 | 81 | 1012.4 |
| 20260902040944 | 82 | 0 | 3.0 | 5.0 | 0.00 | 0.02 | 0.02 | 81 | 1012.5 |
| 20260902040844 | 82 | 0 | 2.0 | 5.0 | 0.00 | 0.02 | 0.02 | 81 | 1012.5 |
| 20260902040744 | 82 | 0 | 2.0 | 5.0 | 0.00 | 0.02 | 0.02 | 81 | 1012.5 |
| 20260902040645 | 82 | 0 | 3.0 | 5.0 | 0.00 | 0.02 | 0.02 | 81 | 1012.5 |
| 20260902040544 | 82 | 0 | 3.0 | 5.0 | 0.00 | 0.02 | 0.02 | 81 | 1012.6 |
| 20260902040444 | 82 | 0 | 3.0 | 5.0 | 0.00 | 0.02 | 0.02 | 81 | 1012.5 |
| 20260902040346 | 82 | 0 | 2.0 | 5.0 | 0.00 | 0.02 | 0.02 | 81 | 1012.4 |
| 20260902040245 | 82 | 0 | 1.0 | 5.0 | 0.00 | 0.02 | 0.02 | 81 | 1012.5 |
| 20260902040146 | 82 | 0 | 1.0 | 5.0 | 0.00 | 0.02 | 0.02 | 81 | 1012.5 |
| 20260902040044 | 82 | 0 | 2.0 | 5.0 | 0.00 | 0.02 | 0.02 | 81 | 1012.6 |
| 20260902035946 | 82 | 0 | 3.0 | 5.0 | 0.00 | 0.02 | 0.02 | 81 | 1012.5 |
| 20260902035843 | 82 | 0 | 2.0 | 6.0 | 0.00 | 0.02 | 0.02 | 80 | 1012.5 |
| 20260902035745 | 82 | 0 | 3.0 | 6.0 | 0.00 | 0.02 | 0.02 | 80 | 1012.5 |
| 20260902035644 | 82 | 0 | 3.0 | 6.0 | 0.00 | 0.02 | 0.02 | 80 | 1012.5 |
| 20260902035543 | 82 | 0 | 3.0 | 6.0 | 0.00 | 0.02 | 0.02 | 80 | 1012.4 |
| 20260902035442 | 82 | 0 | 4.0 | 6.0 | 0.00 | 0.02 | 0.02 | 80 | 1012.5 |
| 20260902035344 | 82 | 0 | 4.0 | 6.0 | 0.00 | 0.02 | 0.02 | 80 | 1012.5 |
| 20260902035245 | 82 | 0 | 4.0 | 6.0 | 0.00 | 0.02 | 0.02 | 80 | 1012.4 |
| 20260902035143 | 82 | 0 | 4.0 | 6.0 | 0.00 | 0.02 | 0.02 | 80 | 1012.4 |
| 20260902035043 | 82 | 0 | 4.0 | 6.0 | 0.00 | 0.02 | 0.02 | 80 | 1012.4 |
| 20260902034943 | 82 | 0 | 4.0 | 6.0 | 0.00 | 0.02 | 0.02 | 80 | 1012.4 |
| 20260902034845 | 82 | 0 | 4.0 | 6.0 | 0.00 | 0.02 | 0.02 | 80 | 1012.4 |
| 20260902034744 | 82 | 0 | 4.0 | 6.0 | 0.00 | 0.02 | 0.02 | 80 | 1012.4 |
| 20260902034645 | 82 | 0 | 4.0 | 6.0 | 0.00 | 0.02 | 0.02 | 80 | 1012.5 |
| 20260902034544 | 82 | 0 | 4.0 | 6.0 | 0.00 | 0.02 | 0.02 | 80 | 1012.5 |
| 20260902034445 | 83 | 0 | 4.0 | 6.0 | 0.00 | 0.02 | 0.02 | 79 | 1012.4 |
| 20260902034343 | 83 | 0 | 4.0 | 6.0 | 0.00 | 0.02 | 0.02 | 79 | 1012.5 |
| 20260902034244 | 83 | 0 | 3.0 | 4.0 | 0.00 | 0.02 | 0.02 | 79 | 1012.4 |
| 20260902034145 | 83 | 0 | 3.0 | 3.0 | 0.00 | 0.02 | 0.02 | 79 | 1012.5 |
| 20260902034044 | 83 | 0 | 0.0 | 0.0 | 0.00 | 0.02 | 0.02 | 79 | 1012.5 |
| 20260902033945 | 83 | 0 | 0.0 | 0.0 | 0.00 | 0.02 | 0.02 | 79 | 1012.5 |
| 20260902033844 | 83 | 0 | 0.0 | 0.0 | 0.00 | 0.02 | 0.02 | 79 | 1012.4 |
| 20260902033745 | 83 | 0 | 0.0 | 0.0 | 0.00 | 0.02 | 0.02 | 79 | 1012.4 |
| 20260902033643 | 83 | 0 | 0.0 | 0.0 | 0.00 | 0.02 | 0.02 | 79 | 1012.6 |
| 20260902033546 | 83 | 0 | 0.0 | 0.0 | 0.00 | 0.02 | 0.02 | 79 | 1012.5 |
| 20260902033443 | 83 | 0 | 0.0 | 0.0 | 0.00 | 0.02 | 0.02 | 79 | 1012.5 |
| 20260902033344 | 83 | 0 | 0.0 | 0.0 | 0.00 | 0.02 | 0.02 | 79 | 1012.5 |
| 20260902033242 | 83 | 0 | 0.0 | 0.0 | 0.00 | 0.02 | 0.02 | 79 | 1012.5 |
| 20260902033143 | 83 | 0 | 0.0 | 0.0 | 0.00 | 0.02 | 0.02 | 79 | 1012.5 |
| 20260902033045 | 83 | 0 | 0.0 | 0.0 | 0.00 | 0.02 | 0.02 | 79 | 1012.5 |
| 20260902032944 | 83 | 0 | 0.0 | 0.0 | 0.00 | 0.02 | 0.02 | 79 | 1012.6 |
| 20260902032844 | 83 | 0 | 0.0 | 0.0 | 0.00 | 0.02 | 0.02 | 79 | 1012.6 |
| 20260902032742 | 83 | 0 | 0.0 | 0.0 | 0.00 | 0.02 | 0.02 | 79 | 1012.6 |
| 20260902032643 | 83 | 0 | 0.0 | 0.0 | 0.00 | 0.02 | 0.02 | 79 | 1012.6 |
| 20260902032544 | 83 | 0 | 0.0 | 0.0 | 0.00 | 0.02 | 0.02 | 79 | 1012.6 |
| 20260902032442 | 83 | 0 | 0.0 | 2.0 | 0.00 | 0.02 | 0.02 | 79 | 1012.6 |
| 20260902032344 | 83 | 0 | 0.0 | 2.0 | 0.00 | 0.02 | 0.02 | 79 | 1012.6 |
| 20260902032244 | 83 | 0 | 0.0 | 3.0 | 0.00 | 0.02 | 0.02 | 79 | 1012.6 |
| 20260902032143 | 83 | 0 | 0.0 | 3.0 | 0.00 | 0.02 | 0.02 | 79 | 1012.6 |
| 20260902032045 | 83 | 0 | 0.0 | 3.0 | 0.00 | 0.02 | 0.02 | 79 | 1012.5 |
| 20260902031942 | 83 | 0 | 0.0 | 3.0 | 0.00 | 0.02 | 0.02 | 79 | 1012.5 |
| 20260902031845 | 83 | 0 | 0.0 | 3.0 | 0.00 | 0.02 | 0.02 | 79 | 1012.5 |
| 20260902031744 | 83 | 0 | 0.0 | 3.0 | 0.00 | 0.02 | 0.02 | 79 | 1012.5 |
| 20260902031644 | 83 | 0 | 1.0 | 3.0 | 0.00 | 0.02 | 0.02 | 79 | 1012.5 |
| 20260902031542 | 83 | 0 | 1.0 | 3.0 | 0.00 | 0.02 | 0.02 | 79 | 1012.5 |
| 20260902031443 | 83 | 0 | 1.0 | 3.0 | 0.00 | 0.02 | 0.02 | 79 | 1012.5 |
| 20260902031342 | 83 | 0 | 1.0 | 3.0 | 0.00 | 0.02 | 0.02 | 79 | 1012.5 |
| 20260902031244 | 83 | 0 | 0.0 | 0.0 | 0.00 | 0.02 | 0.02 | 79 | 1012.5 |
| 20260902031145 | 83 | 0 | 0.0 | 0.0 | 0.00 | 0.02 | 0.02 | 79 | 1012.4 |
| 20260902031042 | 83 | 0 | 0.0 | 0.0 | 0.00 | 0.02 | 0.02 | 79 | 1012.5 |
| 20260902030943 | 83 | 0 | 0.0 | 0.0 | 0.00 | 0.02 | 0.02 | 79 | 1012.4 |
| 20260902030842 | 83 | 0 | 0.0 | 0.0 | 0.00 | 0.02 | 0.02 | 79 | 1012.4 |
| 20260902030744 | 83 | 0 | 0.0 | 0.0 | 0.00 | 0.02 | 0.02 | 79 | 1012.4 |
| 20260902030643 | 83 | 0 | 0.0 | 0.0 | 0.00 | 0.02 | 0.02 | 79 | 1012.4 |
| 20260902030544 | 83 | 0 | 0.0 | 0.0 | 0.00 | 0.02 | 0.02 | 79 | 1012.3 |
| 20260902030443 | 83 | 0 | 0.0 | 0.0 | 0.00 | 0.02 | 0.02 | 79 | 1012.4 |
| 20260902030343 | 83 | 0 | 0.0 | 0.0 | 0.00 | 0.02 | 0.02 | 79 | 1012.3 |
| 20260902030242 | 83 | 0 | 0.0 | 0.0 | 0.00 | 0.02 | 0.02 | 79 | 1012.3 |
| 20260902030143 | 83 | 0 | 0.0 | 0.0 | 0.00 | 0.02 | 0.02 | 79 | 1012.3 |
| 20260902030043 | 83 | 0 | 0.0 | 0.0 | 0.00 | 0.02 | 0.02 | 79 | 1012.3 |
| 20260902025943 | 83 | 0 | 0.0 | 0.0 | 0.00 | 0.02 | 0.02 | 80 | 1012.3 |
| 20260902025844 | 83 | 0 | 0.0 | 0.0 | 0.00 | 0.02 | 0.02 | 80 | 1012.3 |
| 20260902025744 | 83 | 0 | 0.0 | 0.0 | 0.00 | 0.02 | 0.02 | 80 | 1012.3 |
| 20260902025643 | 83 | 0 | 0.0 | 0.0 | 0.00 | 0.02 | 0.02 | 80 | 1012.2 |
| 20260902025542 | 83 | 0 | 0.0 | 0.0 | 0.00 | 0.02 | 0.02 | 80 | 1012.2 |
| 20260902025441 | 83 | 0 | 0.0 | 4.0 | 0.00 | 0.02 | 0.02 | 80 | 1012.2 |
| 20260902025342 | 83 | 0 | 0.0 | 4.0 | 0.00 | 0.02 | 0.02 | 80 | 1012.1 |
| 20260902025242 | 83 | 0 | 0.0 | 4.0 | 0.00 | 0.02 | 0.02 | 80 | 1012.1 |
| 20260902025143 | 83 | 0 | 0.0 | 4.0 | 0.00 | 0.02 | 0.02 | 80 | 1012.1 |
| 20260902025041 | 83 | 0 | 0.0 | 4.0 | 0.00 | 0.02 | 0.02 | 80 | 1012.1 |
| 20260902024942 | 83 | 0 | 0.0 | 4.0 | 0.00 | 0.02 | 0.02 | 80 | 1012.1 |
| 20260902024841 | 83 | 0 | 3.0 | 4.0 | 0.00 | 0.02 | 0.02 | 79 | 1012.1 |
| 20260902024742 | 83 | 0 | 3.0 | 4.0 | 0.00 | 0.02 | 0.02 | 79 | 1012.0 |
| 20260902024642 | 83 | 0 | 3.0 | 4.0 | 0.00 | 0.02 | 0.02 | 79 | 1012.1 |
| 20260902024543 | 83 | 0 | 3.0 | 4.0 | 0.00 | 0.02 | 0.02 | 79 | 1012.0 |
| 20260902024442 | 83 | 0 | 3.0 | 4.0 | 0.00 | 0.02 | 0.02 | 79 | 1011.9 |
| 20260902024341 | 83 | 0 | 2.0 | 4.0 | 0.00 | 0.02 | 0.02 | 79 | 1011.9 |
| 20260902024240 | 83 | 0 | 2.0 | 4.0 | 0.00 | 0.02 | 0.02 | 79 | 1011.9 |
| 20260902024140 | 83 | 0 | 2.0 | 4.0 | 0.00 | 0.02 | 0.02 | 79 | 1011.9 |
| 20260902024040 | 83 | 0 | 2.0 | 4.0 | 0.00 | 0.02 | 0.02 | 79 | 1011.9 |
| 20260902023942 | 83 | 0 | 2.0 | 4.0 | 0.00 | 0.02 | 0.02 | 79 | 1011.9 |
| 20260902023841 | 83 | 0 | 2.0 | 4.0 | 0.00 | 0.02 | 0.02 | 79 | 1011.9 |
| 20260902023742 | 83 | 0 | 2.0 | 4.0 | 0.00 | 0.02 | 0.02 | 79 | 1011.9 |
| 20260902023640 | 83 | 0 | 2.0 | 4.0 | 0.00 | 0.02 | 0.02 | 79 | 1011.8 |
| 20260902023542 | 83 | 0 | 0.0 | 0.0 | 0.00 | 0.02 | 0.02 | 79 | 1012.0 |
| 20260902023442 | 83 | 0 | 0.0 | 0.0 | 0.00 | 0.02 | 0.02 | 79 | 1011.9 |
| 20260902023339 | 83 | 0 | 0.0 | 0.0 | 0.00 | 0.02 | 0.02 | 79 | 1011.9 |
| 20260902023242 | 83 | 0 | 0.0 | 0.0 | 0.00 | 0.02 | 0.02 | 79 | 1011.9 |
| 20260902023141 | 83 | 0 | 0.0 | 0.0 | 0.00 | 0.02 | 0.02 | 79 | 1012.0 |
| 20260902023039 | 83 | 0 | 0.0 | 0.0 | 0.00 | 0.02 | 0.02 | 79 | 1011.9 |
| 20260902022940 | 83 | 0 | 0.0 | 0.0 | 0.00 | 0.02 | 0.02 | 79 | 1011.9 |
| 20260902022841 | 83 | 0 | 0.0 | 2.0 | 0.00 | 0.02 | 0.02 | 79 | 1011.9 |
| 20260902022739 | 83 | 0 | 0.0 | 3.0 | 0.00 | 0.02 | 0.02 | 79 | 1011.9 |
| 20260902022641 | 83 | 0 | 0.0 | 4.0 | 0.00 | 0.02 | 0.02 | 79 | 1011.8 |
| 20260902022541 | 83 | 0 | 0.0 | 4.0 | 0.00 | 0.02 | 0.02 | 79 | 1011.8 |
| 20260902022440 | 83 | 0 | 0.0 | 4.0 | 0.00 | 0.02 | 0.02 | 79 | 1011.9 |
| 20260902022339 | 83 | 0 | 0.0 | 4.0 | 0.00 | 0.02 | 0.02 | 79 | 1011.8 |
| 20260902022239 | 83 | 0 | 0.0 | 4.0 | 0.00 | 0.02 | 0.02 | 80 | 1011.8 |
| 20260902022140 | 83 | 0 | 0.0 | 4.0 | 0.00 | 0.02 | 0.02 | 79 | 1011.8 |
| 20260902022040 | 83 | 0 | 0.0 | 4.0 | 0.00 | 0.02 | 0.02 | 79 | 1011.8 |
| 20260902021940 | 83 | 0 | 1.0 | 4.0 | 0.00 | 0.02 | 0.02 | 79 | 1011.7 |
| 20260902021840 | 83 | 0 | 2.0 | 4.0 | 0.00 | 0.02 | 0.02 | 79 | 1011.7 |
| 20260902021739 | 83 | 0 | 2.0 | 4.0 | 0.00 | 0.02 | 0.02 | 79 | 1011.7 |
| 20260902021640 | 83 | 0 | 1.0 | 4.0 | 0.00 | 0.02 | 0.02 | 79 | 1011.7 |
| 20260902021539 | 83 | 0 | 0.0 | 4.0 | 0.00 | 0.02 | 0.02 | 79 | 1011.6 |
| 20260902021439 | 83 | 0 | 1.0 | 4.0 | 0.00 | 0.02 | 0.02 | 79 | 1011.6 |
| 20260902021339 | 83 | 0 | 2.0 | 4.0 | 0.00 | 0.02 | 0.02 | 79 | 1011.5 |
| 20260902021242 | 83 | 0 | 2.0 | 4.0 | 0.00 | 0.02 | 0.02 | 79 | 1011.5 |
| 20260902021139 | 83 | 0 | 2.0 | 4.0 | 0.00 | 0.02 | 0.02 | 79 | 1011.5 |
| 20260902021040 | 83 | 0 | 2.0 | 4.0 | 0.00 | 0.02 | 0.02 | 79 | 1011.5 |
| 20260902020940 | 83 | 0 | 2.0 | 4.0 | 0.00 | 0.02 | 0.02 | 79 | 1011.4 |
| 20260902020840 | 83 | 0 | 3.0 | 4.0 | 0.00 | 0.02 | 0.02 | 79 | 1011.5 |
| 20260902020739 | 83 | 0 | 2.0 | 4.0 | 0.00 | 0.02 | 0.02 | 80 | 1011.5 |
| 20260902020639 | 83 | 0 | 0.0 | 2.0 | 0.00 | 0.02 | 0.02 | 79 | 1011.5 |
| 20260902020541 | 83 | 0 | 0.0 | 0.0 | 0.00 | 0.02 | 0.02 | 79 | 1011.6 |
| 20260902020439 | 83 | 0 | 0.0 | 0.0 | 0.00 | 0.02 | 0.02 | 79 | 1011.5 |
| 20260902020340 | 83 | 0 | 0.0 | 0.0 | 0.00 | 0.02 | 0.02 | 79 | 1011.5 |
| 20260902020240 | 83 | 0 | 0.0 | 0.0 | 0.00 | 0.02 | 0.02 | 80 | 1011.5 |
| 20260902020141 | 83 | 0 | 0.0 | 0.0 | 0.00 | 0.02 | 0.02 | 80 | 1011.5 |
| 20260902020040 | 83 | 0 | 0.0 | 0.0 | 0.00 | 0.02 | 0.02 | 80 | 1011.6 |
| 20260902015941 | 83 | 0 | 0.0 | 0.0 | 0.00 | 0.02 | 0.02 | 80 | 1011.6 |
| 20260902015839 | 82 | 0 | 0.0 | 0.0 | 0.00 | 0.02 | 0.02 | 80 | 1011.5 |
| 20260902015740 | 83 | 0 | 0.0 | 0.0 | 0.00 | 0.02 | 0.02 | 80 | 1011.5 |
| 20260902015638 | 82 | 0 | 0.0 | 0.0 | 0.00 | 0.02 | 0.02 | 80 | 1011.5 |
| 20260902015540 | 82 | 0 | 0.0 | 0.0 | 0.00 | 0.02 | 0.02 | 80 | 1011.5 |
| 20260902015440 | 82 | 0 | 0.0 | 2.0 | 0.00 | 0.02 | 0.02 | 80 | 1011.4 |
| 20260902015341 | 82 | 0 | 0.0 | 2.0 | 0.00 | 0.02 | 0.02 | 80 | 1011.4 |
| 20260902015239 | 82 | 0 | 0.0 | 2.0 | 0.00 | 0.02 | 0.02 | 80 | 1011.4 |
| 20260902015139 | 82 | 0 | 0.0 | 2.0 | 0.00 | 0.02 | 0.02 | 80 | 1011.4 |
| 20260902015041 | 82 | 0 | 0.0 | 2.0 | 0.00 | 0.02 | 0.02 | 80 | 1011.4 |
| 20260902014938 | 82 | 0 | 0.0 | 2.0 | 0.00 | 0.02 | 0.02 | 80 | 1011.3 |
| 20260902014840 | 82 | 0 | 0.0 | 2.0 | 0.00 | 0.02 | 0.02 | 80 | 1011.3 |
| 20260902014740 | 82 | 0 | 0.0 | 2.0 | 0.00 | 0.02 | 0.02 | 80 | 1011.3 |
| 20260902014639 | 82 | 0 | 0.0 | 4.0 | 0.00 | 0.02 | 0.02 | 80 | 1011.3 |
| 20260902014541 | 82 | 0 | 1.0 | 4.0 | 0.00 | 0.02 | 0.02 | 80 | 1011.3 |
| 20260902014439 | 82 | 0 | 2.0 | 4.0 | 0.00 | 0.02 | 0.02 | 80 | 1011.3 |
| 20260902014346 | 82 | 0 | 0.0 | 4.0 | 0.00 | 0.02 | 0.02 | 80 | 1011.3 |
| 20260902014232 | 82 | 0 | 0.0 | 4.0 | 0.00 | 0.02 | 0.02 | 80 | 1011.3 |
| 20260902014132 | 82 | 0 | 0.0 | 4.0 | 0.00 | 0.02 | 0.02 | 80 | 1011.2 |
| 20260902014032 | 82 | 0 | 0.0 | 4.0 | 0.00 | 0.02 | 0.02 | 80 | 1011.2 |
| 20260902013931 | 82 | 0 | 1.0 | 4.0 | 0.00 | 0.02 | 0.02 | 80 | 1011.2 |
| 20260902013832 | 82 | 0 | 2.0 | 4.0 | 0.00 | 0.02 | 0.02 | 80 | 1011.3 |
| 20260902013732 | 82 | 0 | 2.0 | 4.0 | 0.00 | 0.02 | 0.02 | 80 | 1011.1 |
| 20260902013632 | 82 | 0 | 1.0 | 3.0 | 0.00 | 0.02 | 0.02 | 80 | 1011.1 |
| 20260902013532 | 82 | 0 | 1.0 | 3.0 | 0.00 | 0.02 | 0.02 | 80 | 1011.1 |
| 20260902013431 | 82 | 0 | 1.0 | 3.0 | 0.00 | 0.02 | 0.02 | 80 | 1011.1 |
| 20260902013330 | 82 | 0 | 0.0 | 3.0 | 0.00 | 0.02 | 0.02 | 80 | 1011.1 |
| 20260902013232 | 82 | 0 | 0.0 | 3.0 | 0.00 | 0.02 | 0.02 | 80 | 1011.1 |
| 20260902013132 | 82 | 0 | 1.0 | 3.0 | 0.00 | 0.02 | 0.02 | 80 | 1011.1 |
| 20260902013033 | 82 | 0 | 1.0 | 3.0 | 0.00 | 0.02 | 0.02 | 80 | 1011.1 |
| 20260902012932 | 82 | 0 | 2.0 | 3.0 | 0.00 | 0.02 | 0.02 | 80 | 1011.1 |
| 20260902012832 | 82 | 0 | 1.0 | 3.0 | 0.00 | 0.02 | 0.02 | 80 | 1011.1 |
| 20260902012731 | 82 | 0 | 0.0 | 3.0 | 0.00 | 0.02 | 0.02 | 80 | 1011.1 |
| 20260902012631 | 82 | 0 | 0.0 | 3.0 | 0.00 | 0.02 | 0.02 | 80 | 1011.1 |
| 20260902012533 | 82 | 0 | 1.0 | 3.0 | 0.00 | 0.02 | 0.02 | 80 | 1011.0 |
| 20260902012432 | 82 | 0 | 1.0 | 3.0 | 0.00 | 0.02 | 0.02 | 80 | 1011.0 |
| 20260902012332 | 82 | 0 | 1.0 | 3.0 | 0.00 | 0.02 | 0.02 | 80 | 1011.1 |
| 20260902012211 | 82 | 0 | 1.0 | 3.0 | 0.00 | 0.02 | 0.02 | 80 | 1011.0 |
| 20260902012107 | 82 | 0 | 1.0 | 2.0 | 0.00 | 0.02 | 0.02 | 80 | 1011.0 |
| 20260902012008 | 82 | 0 | 1.0 | 2.0 | 0.00 | 0.02 | 0.02 | 80 | 1011.0 |
| 20260902011906 | 82 | 0 | 1.0 | 2.0 | 0.00 | 0.02 | 0.02 | 80 | 1010.9 |
| 20260902011803 | 82 | 0 | 1.0 | 2.0 | 0.00 | 0.02 | 0.02 | 80 | 1010.9 |
| 20260902011702 | 82 | 0 | 0.0 | 0.0 | 0.00 | 0.02 | 0.02 | 80 | 1011.0 |
| 20260902011602 | 82 | 0 | 0.0 | 0.0 | 0.00 | 0.02 | 0.02 | 80 | 1010.9 |
| 20260902011503 | 82 | 0 | 0.0 | 0.0 | 0.00 | 0.02 | 0.02 | 80 | 1010.9 |
| 20260902011402 | 82 | 0 | 0.0 | 0.0 | 0.00 | 0.02 | 0.02 | 80 | 1011.0 |
| 20260902011304 | 82 | 0 | 0.0 | 0.0 | 0.00 | 0.02 | 0.02 | 81 | 1011.0 |
| 20260902011203 | 82 | 0 | 0.0 | 0.0 | 0.00 | 0.02 | 0.02 | 81 | 1010.9 |
| 20260902011104 | 82 | 0 | 0.0 | 0.0 | 0.00 | 0.02 | 0.02 | 81 | 1011.0 |
| 20260902011003 | 82 | 0 | 0.0 | 0.0 | 0.00 | 0.02 | 0.02 | 81 | 1011.0 |
| 20260902010904 | 82 | 0 | 0.0 | 0.0 | 0.00 | 0.02 | 0.02 | 81 | 1011.0 |
| 20260902010802 | 82 | 0 | 0.0 | 0.0 | 0.00 | 0.02 | 0.02 | 81 | 1011.0 |
| 20260902010656 | 82 | 0 | 0.0 | 0.0 | 0.00 | 0.02 | 0.02 | 81 | 1011.0 |
| 20260902010555 | 82 | 0 | 0.0 | 0.0 | 0.00 | 0.02 | 0.02 | 81 | 1011.0 |
| 20260902010452 | 82 | 0 | 0.0 | 0.0 | 0.00 | 0.02 | 0.02 | 81 | 1011.0 |
| 20260902010351 | 82 | 0 | 0.0 | 0.0 | 0.00 | 0.02 | 0.02 | 81 | 1011.0 |
| 20260902010246 | 82 | 0 | 0.0 | 0.0 | 0.00 | 0.02 | 0.02 | 81 | 1011.0 |
| 20260902010143 | 82 | 0 | 0.0 | 0.0 | 0.00 | 0.02 | 0.02 | 81 | 1011.0 |
| 20260902010042 | 82 | 0 | 0.0 | 0.0 | 0.00 | 0.02 | 0.02 | 81 | 1011.0 |
| 20260902005943 | 82 | 0 | 0.0 | 0.0 | 0.00 | 0.02 | 0.02 | 81 | 1011.0 |
| 20260902005840 | 82 | 0 | 0.0 | 0.0 | 0.00 | 0.02 | 0.02 | 81 | 1010.9 |
| 20260902005738 | 82 | 0 | 0.0 | 0.0 | 0.00 | 0.02 | 0.02 | 81 | 1011.0 |
| 20260902005638 | 82 | 0 | 0.0 | 0.0 | 0.00 | 0.02 | 0.02 | 81 | 1011.0 |
| 20260902005537 | 82 | 0 | 0.0 | 0.0 | 0.00 | 0.02 | 0.02 | 81 | 1011.0 |
| 20260902005439 | 82 | 0 | 0.0 | 0.0 | 0.00 | 0.02 | 0.02 | 81 | 1011.0 |
| 20260902005337 | 82 | 0 | 0.0 | 0.0 | 0.00 | 0.02 | 0.02 | 81 | 1011.0 |
| 20260902005239 | 82 | 0 | 0.0 | 0.0 | 0.00 | 0.02 | 0.02 | 81 | 1011.0 |
| 20260902005139 | 0 | 0 | 0.0 | 0.0 | 0.00 | 0.02 | 0.02 | 1011.0 | |
| 20260902005038 | 0 | 0.0 | 0.0 | 0.00 | 0.02 | 0.02 | 1011.0 | ||
| 20260902004932 | 0 | 0.0 | 0.0 | 0.00 | 0.02 | 0.02 | 1010.9 | ||
| 20260902004832 | 0 | 0.0 | 0.0 | 0.00 | 0.02 | 0.02 | 1011.1 | ||
| 20260902004731 | 0 | 0.0 | 0.0 | 0.00 | 0.02 | 0.02 | 1011.1 | ||
| 20260902004632 | 0 | 0.0 | 0.0 | 0.00 | 0.02 | 0.02 | 1011.1 | ||
| 20260902004532 | 0 | 0.0 | 0.0 | 0.00 | 0.02 | 0.02 | 1011.1 | ||
| 20260902004432 | 0 | 0.0 | 0.0 | 0.00 | 0.02 | 0.02 | 1011.1 | ||
| 20260902004333 | 0 | 0.0 | 0.0 | 0.00 | 0.02 | 0.02 | 1011.1 | ||
| 20260902004233 | 82 | 0 | 0.0 | 0.0 | 0.00 | 0.02 | 0.02 | 81 | 1011.1 |
| 20260902004133 | 82 | 0 | 0.0 | 0.0 | 0.00 | 0.02 | 0.02 | 81 | 1011.1 |
| 20260902004031 | 82 | 0 | 0.0 | 0.0 | 0.00 | 0.02 | 0.02 | 81 | 1011.1 |
| 20260902003932 | 82 | 0 | 0.0 | 0.0 | 0.00 | 0.02 | 0.02 | 81 | 1011.1 |
| 20260902003832 | 82 | 0 | 0.0 | 0.0 | 0.00 | 0.02 | 0.02 | 81 | 1011.2 |
| 20260902003732 | 82 | 0 | 0.0 | 0.0 | 0.00 | 0.02 | 0.02 | 81 | 1011.2 |
| 20260902003605 | 82 | 0 | 0.0 | 0.0 | 0.00 | 0.02 | 0.02 | 81 | 1011.2 |
| 20260902003504 | 82 | 0 | 0.0 | 0.0 | 0.00 | 0.02 | 0.02 | 81 | 1011.2 |
| 20260902003404 | 82 | 0 | 0.0 | 0.0 | 0.00 | 0.02 | 0.02 | 81 | 1011.1 |
| 20260902003303 | 82 | 0 | 0.0 | 2.0 | 0.00 | 0.02 | 0.02 | 81 | 1011.2 |
| 20260902003202 | 82 | 0 | 0.0 | 2.0 | 0.00 | 0.02 | 0.02 | 81 | 1011.2 |
| 20260902003104 | 82 | 0 | 0.0 | 2.0 | 0.00 | 0.02 | 0.02 | 82 | 1011.2 |
| 20260902003002 | 82 | 0 | 0.0 | 2.0 | 0.00 | 0.02 | 0.02 | 82 | 1011.2 |
| 20260902002901 | 82 | 0 | 0.0 | 2.0 | 0.00 | 0.02 | 0.02 | 81 | 1011.2 |
| 20260902002803 | 82 | 0 | 0.0 | 2.0 | 0.00 | 0.02 | 0.02 | 82 | 1011.2 |
| 20260902002703 | 82 | 0 | 0.0 | 2.0 | 0.00 | 0.02 | 0.02 | 82 | 1011.2 |
| 20260902002603 | 82 | 0 | 0.0 | 2.0 | 0.00 | 0.02 | 0.02 | 82 | 1011.2 |
| 20260902002504 | 82 | 0 | 0.0 | 2.0 | 0.00 | 0.02 | 0.02 | 82 | 1011.2 |
| 20260902002403 | 82 | 0 | 1.0 | 2.0 | 0.00 | 0.02 | 0.02 | 82 | 1011.2 |
| 20260902002306 | 82 | 0 | 1.0 | 3.0 | 0.00 | 0.02 | 0.02 | 82 | 1011.2 |
| 20260902002203 | 82 | 0 | 0.0 | 3.0 | 0.00 | 0.02 | 0.02 | 82 | 1011.2 |
| 20260902002100 | 82 | 0 | 0.0 | 3.0 | 0.00 | 0.02 | 0.02 | 82 | 1011.2 |
| 20260902001959 | 82 | 0 | 0.0 | 3.0 | 0.00 | 0.02 | 0.02 | 82 | 1011.2 |
| 20260902001856 | 82 | 0 | 0.0 | 3.0 | 0.00 | 0.02 | 0.02 | 82 | 1011.3 |
| 20260902001758 | 82 | 0 | 0.0 | 3.0 | 0.00 | 0.02 | 0.02 | 82 | 1011.3 |
| 20260902001655 | 82 | 0 | 0.0 | 3.0 | 0.00 | 0.02 | 0.02 | 82 | 1011.2 |
| 20260902001556 | 82 | 0 | 0.0 | 3.0 | 0.00 | 0.02 | 0.02 | 82 | 1011.3 |
| 20260902001438 | 82 | 0 | 0.0 | 3.0 | 0.00 | 0.02 | 0.02 | 82 | 1011.2 |
| 20260902001336 | 82 | 0 | 0.0 | 3.0 | 0.00 | 0.02 | 0.02 | 82 | 1011.2 |
| 20260902001236 | 82 | 0 | 0.0 | 0.0 | 0.00 | 0.02 | 0.02 | 82 | 1011.2 |
| 20260902001135 | 82 | 0 | 0.0 | 0.0 | 0.00 | 0.02 | 0.02 | 82 | 1011.2 |
| 20260902001036 | 82 | 0 | 0.0 | 0.0 | 0.00 | 0.02 | 0.02 | 82 | 1011.2 |
| 20260902000935 | 82 | 0 | 0.0 | 0.0 | 0.00 | 0.02 | 0.02 | 82 | 1011.3 |
| 20260902000833 | 82 | 0 | 0.0 | 0.0 | 0.00 | 0.02 | 0.02 | 82 | 1011.2 |
| 20260902000732 | 0 | 0.0 | 0.0 | 0.00 | 0.02 | 0.02 | 1011.2 | ||
| 20260902000636 | 0 | 0.0 | 0.0 | 0.00 | 0.02 | 0.02 | 1011.2 | ||
| 20260902000531 | 82 | 0 | 0.0 | 3.0 | 0.00 | 0.02 | 0.02 | 1011.1 | |
| 20260902000430 | 82 | 0 | 0.0 | 3.0 | 0.00 | 0.02 | 0.02 | 82 | 1011.2 |
| 20260902000331 | 82 | 0 | 0.0 | 3.0 | 0.00 | 0.02 | 0.02 | 82 | 1011.2 |
| 20260902000230 | 82 | 0 | 0.0 | 4.0 | 0.00 | 0.02 | 0.02 | 82 | 1011.1 |
| 20260902000129 | 82 | 0 | 0.0 | 4.0 | 0.00 | 0.02 | 0.02 | 82 | 1011.1 |
| 20260902000030 | 82 | 0 | 0.0 | 4.0 | 0.00 | 0.02 | 0.02 | 82 | 1011.1 |
| 20260901235928 | 82 | 0 | 0.0 | 4.0 | 0.00 | 0.02 | 0.02 | 82 | 1011.1 |
| 20260901235829 | 82 | 0 | 0.0 | 4.0 | 0.00 | 0.02 | 0.02 | 82 | 1011.1 |
| 20260901235729 | 82 | 0 | 0.0 | 4.0 | 0.00 | 0.02 | 0.02 | 82 | 1011.2 |
| 20260901235629 | 82 | 0 | 0.0 | 4.0 | 0.00 | 0.02 | 0.02 | 82 | 1011.1 |
| 20260901235512 | 82 | 0 | 0.0 | 4.0 | 0.00 | 0.02 | 0.02 | 82 | 1011.1 |
| 20260901235411 | 82 | 0 | 1.0 | 4.0 | 0.00 | 0.02 | 0.02 | 82 | 1011.1 |
| 20260901235310 | 82 | 0 | 1.0 | 4.0 | 0.00 | 0.02 | 0.02 | 82 | 1011.1 |
| 20260901235208 | 82 | 0 | 1.0 | 3.0 | 0.00 | 0.02 | 0.02 | 82 | 1011.2 |
| 20260901235107 | 82 | 0 | 1.0 | 3.0 | 0.01 | 0.02 | 0.02 | 83 | 1011.1 |
| 20260901235004 | 82 | 0 | 0.0 | 3.0 | 0.01 | 0.02 | 0.02 | 83 | 1011.1 |
| 20260901234905 | 82 | 0 | 1.0 | 3.0 | 0.01 | 0.02 | 0.02 | 83 | 1011.2 |
| 20260901234803 | 82 | 0 | 1.0 | 3.0 | 0.01 | 0.02 | 0.02 | 83 | 1011.2 |
| 20260901234703 | 82 | 0 | 2.0 | 3.0 | 0.01 | 0.02 | 0.02 | 83 | 1011.2 |
| 20260901234602 | 82 | 0 | 1.0 | 3.0 | 0.01 | 0.02 | 0.02 | 84 | 1011.2 |
| 20260901234505 | 83 | 0 | 1.0 | 4.0 | 0.01 | 0.02 | 0.02 | 84 | 1011.2 |
| 20260901234402 | 83 | 0 | 1.0 | 4.0 | 0.01 | 0.02 | 0.02 | 84 | 1011.2 |
| 20260901234303 | 83 | 0 | 0.0 | 4.0 | 0.01 | 0.02 | 0.02 | 84 | 1011.2 |
| 20260901234205 | 83 | 0 | 1.0 | 4.0 | 0.01 | 0.02 | 0.02 | 84 | 1011.2 |
| 20260901234103 | 83 | 0 | 0.0 | 4.0 | 0.01 | 0.02 | 0.02 | 84 | 1011.2 |
| 20260901234004 | 83 | 0 | 0.0 | 4.0 | 0.01 | 0.02 | 0.02 | 84 | 1011.2 |
| 20260901233903 | 83 | 0 | 0.0 | 4.0 | 0.01 | 0.02 | 0.02 | 84 | 1011.2 |
| 20260901233803 | 83 | 0 | 0.0 | 4.0 | 0.01 | 0.02 | 0.02 | 84 | 1011.3 |
| 20260901233702 | 83 | 0 | 0.0 | 4.0 | 0.01 | 0.02 | 0.02 | 84 | 1011.3 |
| 20260901233602 | 83 | 0 | 0.0 | 4.0 | 0.01 | 0.02 | 0.02 | 84 | 1011.3 |
| 20260901233503 | 83 | 0 | 0.0 | 0.0 | 0.01 | 0.02 | 0.02 | 85 | 1011.3 |
| 20260901233403 | 83 | 0 | 0.0 | 0.0 | 0.01 | 0.02 | 0.02 | 85 | 1011.3 |
| 20260901233258 | 83 | 0 | 0.0 | 0.0 | 0.01 | 0.02 | 0.02 | 85 | 1011.3 |
| 20260901233152 | 83 | 0 | 0.0 | 0.0 | 0.01 | 0.02 | 0.02 | 85 | 1011.3 |
| 20260901233052 | 83 | 0 | 0.0 | 0.0 | 0.01 | 0.02 | 0.02 | 85 | 1011.3 |
| 20260901232951 | 82 | 0 | 0.0 | 0.0 | 0.01 | 0.02 | 0.02 | 85 | 1011.3 |
| 20260901232835 | 82 | 0 | 0.0 | 0.0 | 0.01 | 0.02 | 0.02 | 85 | 1011.3 |
| 20260901232732 | 82 | 0 | 0.0 | 0.0 | 0.01 | 0.02 | 0.02 | 85 | 1011.3 |
| 20260901232631 | 82 | 0 | 0.0 | 0.0 | 0.01 | 0.02 | 0.02 | 85 | 1011.3 |
| 20260901232531 | 82 | 0 | 0.0 | 0.0 | 0.01 | 0.02 | 0.02 | 85 | 1011.3 |
| 20260901232432 | 82 | 0 | 0.0 | 0.0 | 0.01 | 0.02 | 0.02 | 85 | 1011.3 |
| 20260901232333 | 82 | 0 | 0.0 | 0.0 | 0.01 | 0.02 | 0.02 | 85 | 1011.3 |
| 20260901232232 | 82 | 0 | 0.0 | 0.0 | 0.01 | 0.02 | 0.02 | 85 | 1011.4 |
| 20260901232130 | 82 | 0 | 0.0 | 0.0 | 0.01 | 0.02 | 0.02 | 85 | 1011.3 |
| 20260901232030 | 82 | 0 | 0.0 | 0.0 | 0.01 | 0.02 | 0.02 | 85 | 1011.3 |
| 20260901231928 | 82 | 0 | 0.0 | 0.0 | 0.01 | 0.02 | 0.02 | 84 | 1011.3 |
| 20260901231827 | 82 | 0 | 0.0 | 0.0 | 0.01 | 0.02 | 0.02 | 84 | 1011.3 |
| 20260901231727 | 82 | 0 | 0.0 | 0.0 | 0.01 | 0.02 | 0.02 | 84 | 1011.3 |
| 20260901231628 | 82 | 0 | 0.0 | 3.0 | 0.01 | 0.02 | 0.02 | 84 | 1011.3 |
| 20260901231526 | 82 | 0 | 0.0 | 3.0 | 0.01 | 0.02 | 0.02 | 84 | 1011.4 |
| 20260901231404 | 82 | 0 | 0.0 | 6.0 | 0.01 | 0.02 | 0.02 | 84 | 1011.5 |
| 20260901231304 | 82 | 0 | 0.0 | 6.0 | 0.01 | 0.02 | 0.02 | 84 | 1011.5 |
| 20260901231202 | 82 | 0 | 0.0 | 6.0 | 0.01 | 0.02 | 0.02 | 84 | 1011.4 |
| 20260901231103 | 82 | 0 | 0.0 | 6.0 | 0.01 | 0.02 | 0.02 | 84 | 1011.5 |
| 20260901231003 | 82 | 0 | 0.0 | 6.0 | 0.01 | 0.02 | 0.02 | 84 | 1011.5 |
| 20260901230903 | 82 | 0 | 0.0 | 6.0 | 0.01 | 0.02 | 0.02 | 84 | 1011.5 |
| 20260901230802 | 82 | 0 | 1.0 | 6.0 | 0.01 | 0.02 | 0.02 | 84 | 1011.5 |
| 20260901230703 | 82 | 0 | 2.0 | 6.0 | 0.01 | 0.02 | 0.02 | 84 | 1011.5 |
| 20260901230603 | 82 | 0 | 3.0 | 6.0 | 0.01 | 0.02 | 0.02 | 84 | 1011.6 |
| 20260901230502 | 82 | 0 | 3.0 | 6.0 | 0.01 | 0.02 | 0.02 | 84 | 1011.6 |
| 20260901230402 | 82 | 0 | 3.0 | 5.0 | 0.01 | 0.02 | 0.02 | 84 | 1011.6 |
| 20260901230303 | 82 | 0 | 3.0 | 6.0 | 0.01 | 0.02 | 0.02 | 84 | 1011.6 |
| 20260901230203 | 82 | 0 | 2.0 | 6.0 | 0.02 | 0.02 | 0.02 | 84 | 1011.6 |
| 20260901230104 | 82 | 0 | 2.0 | 6.0 | 0.02 | 0.02 | 0.02 | 84 | 1011.7 |
| 20260901230004 | 82 | 0 | 2.0 | 6.0 | 0.02 | 0.02 | 0.02 | 84 | 1011.7 |
| 20260901225903 | 82 | 0 | 2.0 | 6.0 | 0.02 | 0.02 | 0.02 | 84 | 1011.7 |
| 20260901225802 | 82 | 0 | 2.0 | 6.0 | 0.02 | 0.02 | 0.02 | 84 | 1011.7 |
| 20260901225704 | 82 | 0 | 2.0 | 6.0 | 0.02 | 0.02 | 0.02 | 84 | 1011.7 |
| 20260901225603 | 82 | 0 | 2.0 | 6.0 | 0.02 | 0.02 | 0.02 | 84 | 1011.7 |
| 20260901225505 | 82 | 0 | 3.0 | 6.0 | 0.02 | 0.02 | 0.02 | 84 | 1011.7 |
| 20260901225404 | 83 | 0 | 3.0 | 6.0 | 0.02 | 0.02 | 0.02 | 84 | 1011.8 |
| 20260901225306 | 83 | 0 | 3.0 | 5.0 | 0.02 | 0.02 | 0.02 | 84 | 1011.8 |
| 20260901225203 | 83 | 0 | 4.0 | 5.0 | 0.02 | 0.01 | 0.01 | 85 | 1011.8 |
| 20260901225103 | 83 | 0 | 3.0 | 5.0 | 0.01 | 0.01 | 0.01 | 85 | 1011.8 |
| 20260901225003 | 83 | 0 | 3.0 | 5.0 | 0.01 | 0.01 | 0.01 | 85 | 1011.9 |
| 20260901224903 | 83 | 0 | 3.0 | 5.0 | 0.01 | 0.01 | 0.01 | 85 | 1011.9 |
| 20260901224803 | 83 | 0 | 3.0 | 5.0 | 0.01 | 0.01 | 0.01 | 85 | 1011.8 |
| 20260901224705 | 83 | 0 | 3.0 | 5.0 | 0.01 | 0.01 | 0.01 | 85 | 1011.9 |
| 20260901224604 | 83 | 0 | 3.0 | 5.0 | 0.01 | 0.01 | 0.01 | 85 | 1012.0 |
| 20260901224504 | 83 | 0 | 3.0 | 5.0 | 0.01 | 0.01 | 0.01 | 85 | 1012.0 |
| 20260901224404 | 83 | 0 | 3.0 | 5.0 | 0.01 | 0.01 | 0.01 | 85 | 1011.9 |
| 20260901224302 | 83 | 0 | 3.0 | 5.0 | 0.01 | 0.01 | 0.01 | 85 | 1011.9 |
| 20260901224203 | 83 | 0 | 3.0 | 5.0 | 0.01 | 0.01 | 0.01 | 85 | 1011.9 |
| 20260901224102 | 83 | 0 | 2.0 | 5.0 | 0.01 | 0.01 | 0.01 | 85 | 1011.9 |
| 20260901224004 | 84 | 0 | 2.0 | 5.0 | 0.01 | 0.01 | 0.01 | 85 | 1011.9 |
| 20260901223902 | 84 | 0 | 2.0 | 7.0 | 0.01 | 0.01 | 0.01 | 84 | 1011.9 |
| 20260901223806 | 84 | 0 | 3.0 | 7.0 | 0.01 | 0.01 | 0.01 | 84 | 1011.9 |
| 20260901223703 | 84 | 0 | 3.0 | 7.0 | 0.01 | 0.01 | 0.01 | 84 | 1011.8 |
| 20260901223602 | 84 | 0 | 3.0 | 7.0 | 0.01 | 0.01 | 0.01 | 84 | 1011.8 |
| 20260901223504 | 84 | 0 | 2.0 | 7.0 | 0.01 | 0.01 | 0.01 | 84 | 1011.7 |
| 20260901223403 | 84 | 0 | 2.0 | 7.0 | 0.01 | 0.01 | 0.01 | 84 | 1011.8 |
| 20260901223303 | 84 | 0 | 3.0 | 7.0 | 0.01 | 0.01 | 0.01 | 84 | 1011.7 |
| 20260901223201 | 84 | 0 | 2.0 | 7.0 | 0.01 | 0.01 | 0.01 | 83 | 1011.8 |
| 20260901223103 | 84 | 0 | 4.0 | 7.0 | 0.01 | 0.01 | 0.01 | 83 | 1011.8 |
| 20260901223003 | 84 | 0 | 4.0 | 7.0 | 0.01 | 0.01 | 0.01 | 83 | 1011.8 |
| 20260901222902 | 84 | 0 | 3.0 | 6.0 | 0.01 | 0.01 | 0.01 | 83 | 1011.8 |
| 20260901222804 | 84 | 0 | 1.0 | 3.0 | 0.01 | 0.01 | 0.01 | 83 | 1011.8 |
| 20260901222703 | 84 | 0 | 0.0 | 2.0 | 0.01 | 0.01 | 0.01 | 83 | 1011.7 |
| 20260901222602 | 84 | 0 | 0.0 | 0.0 | 0.01 | 0.01 | 0.01 | 83 | 1011.8 |
| 20260901222503 | 84 | 0 | 0.0 | 0.0 | 0.01 | 0.01 | 0.01 | 83 | 1011.7 |
| 20260901222403 | 84 | 0 | 0.0 | 1.0 | 0.01 | 0.01 | 0.01 | 83 | 1011.8 |
| 20260901222306 | 84 | 0 | 0.0 | 1.0 | 0.01 | 0.01 | 0.01 | 83 | 1011.7 |
| 20260901222204 | 84 | 0 | 0.0 | 1.0 | 0.01 | 0.01 | 0.01 | 83 | 1011.7 |
| 20260901222102 | 84 | 0 | 0.0 | 1.0 | 0.01 | 0.01 | 0.01 | 82 | 1011.7 |
| 20260901222003 | 84 | 0 | 0.0 | 1.0 | 0.01 | 0.01 | 0.01 | 82 | 1011.7 |
| 20260901221903 | 84 | 0 | 0.0 | 1.0 | 0.01 | 0.01 | 0.01 | 83 | 1011.6 |
| 20260901221803 | 83 | 0 | 0.0 | 1.0 | 0.01 | 0.01 | 0.01 | 82 | 1011.6 |
| 20260901221703 | 84 | 0 | 0.0 | 3.0 | 0.01 | 0.01 | 0.01 | 83 | 1011.6 |
| 20260901221604 | 84 | 0 | 0.0 | 3.0 | 0.01 | 0.01 | 0.01 | 83 | 1011.6 |
| 20260901221503 | 84 | 0 | 0.0 | 3.0 | 0.01 | 0.01 | 0.01 | 84 | 1011.5 |
| 20260901221404 | 84 | 0 | 0.0 | 3.0 | 0.01 | 0.01 | 0.01 | 84 | 1011.6 |
| 20260901221302 | 84 | 0 | 0.0 | 3.0 | 0.01 | 0.01 | 0.01 | 84 | 1011.6 |
| 20260901221202 | 84 | 0 | 0.0 | 3.0 | 0.01 | 0.01 | 0.01 | 83 | 1011.6 |
| 20260901221104 | 84 | 61 | 0.0 | 3.0 | 0.01 | 0.01 | 0.01 | 83 | 1011.6 |
| 20260901221003 | 83 | 61 | 0.0 | 3.0 | 0.01 | 0.01 | 0.01 | 83 | 1011.6 |
| 20260901220903 | 83 | 62 | 1.0 | 3.0 | 0.01 | 0.01 | 0.01 | 82 | 1011.6 |
| 20260901220802 | 83 | 62 | 1.0 | 3.0 | 0.01 | 0.01 | 0.01 | 82 | 1011.6 |
| 20260901220703 | 84 | 65 | 0.0 | 0.0 | 0.01 | 0.01 | 0.01 | 84 | 1011.5 |
| 20260901220602 | 84 | 66 | 0.0 | 0.0 | 0.01 | 0.01 | 0.01 | 84 | 1011.5 |
| 20260901220501 | 84 | 69 | 0.0 | 0.0 | 0.01 | 0.01 | 0.01 | 84 | 1011.5 |
| 20260901220403 | 84 | 63 | 0.0 | 0.0 | 0.01 | 0.01 | 0.01 | 84 | 1011.6 |
| 20260901220302 | 84 | 58 | 0.0 | 0.0 | 0.01 | 0.00 | 0.00 | 84 | 1011.6 |
| 20260901220202 | 84 | 59 | 0.0 | 0.0 | 0.00 | 0.00 | 0.00 | 83 | 1011.6 |
| 20260901220105 | 84 | 69 | 0.0 | 0.0 | 0.00 | 0.00 | 0.00 | 83 | 1011.6 |
| 20260901220004 | 84 | 72 | 0.0 | 0.0 | 0.00 | 0.00 | 0.00 | 82 | 1011.7 |
| 20260901215902 | 84 | 79 | 0.0 | 0.0 | 0.00 | 0.00 | 0.00 | 82 | 1011.7 |
| 20260901215803 | 84 | 59 | 0.0 | 0.0 | 0.00 | 0.00 | 0.00 | 81 | 1011.8 |
| 20260901215703 | 85 | 58 | 0.0 | 0.0 | 0.00 | 0.00 | 0.00 | 81 | 1011.8 |
| 20260901215604 | 85 | 58 | 0.0 | 2.0 | 0.00 | 0.00 | 0.00 | 81 | 1011.8 |
| 20260901215503 | 85 | 58 | 0.0 | 2.0 | 0.00 | 0.00 | 0.00 | 81 | 1011.8 |
| 20260901215404 | 85 | 58 | 0.0 | 3.0 | 0.00 | 0.00 | 0.00 | 80 | 1011.9 |
| 20260901215305 | 85 | 58 | 0.0 | 3.0 | 0.00 | 0.00 | 0.00 | 81 | 1011.9 |
| 20260901215203 | 85 | 59 | 0.0 | 3.0 | 0.00 | 0.00 | 0.00 | 81 | 1011.8 |
| 20260901215103 | 85 | 59 | 0.0 | 3.0 | 0.00 | 0.00 | 0.00 | 81 | 1011.9 |
| 20260901215005 | 85 | 58 | 0.0 | 3.0 | 0.00 | 0.00 | 0.00 | 80 | 1011.9 |
| 20260901214903 | 85 | 59 | 0.0 | 3.0 | 0.00 | 0.00 | 0.00 | 80 | 1011.9 |
| 20260901214803 | 85 | 59 | 1.0 | 3.0 | 0.00 | 0.00 | 0.00 | 79 | 1012.0 |
| 20260901214706 | 85 | 59 | 1.0 | 3.0 | 0.00 | 0.00 | 0.00 | 79 | 1012.0 |
| 20260901214602 | 85 | 59 | 1.0 | 3.0 | 0.00 | 0.00 | 0.00 | 79 | 1012.0 |
| 20260901214504 | 86 | 59 | 2.0 | 3.0 | 0.00 | 0.00 | 0.00 | 78 | 1012.0 |
| 20260901214403 | 87 | 58 | 2.0 | 4.0 | 0.00 | 0.00 | 0.00 | 76 | 1012.1 |
| 20260901214306 | 87 | 58 | 2.0 | 4.0 | 0.00 | 0.00 | 0.00 | 76 | 1012.1 |
| 20260901214203 | 87 | 58 | 2.0 | 4.0 | 0.00 | 0.00 | 0.00 | 76 | 1012.1 |
| 20260901214103 | 87 | 58 | 2.0 | 5.0 | 0.00 | 0.00 | 0.00 | 76 | 1012.1 |
| 20260901214002 | 87 | 58 | 2.0 | 5.0 | 0.00 | 0.00 | 0.00 | 72 | 1012.1 |
| 20260901213903 | 88 | 61 | 2.0 | 5.0 | 0.00 | 0.00 | 0.00 | 72 | 1012.1 |
| 20260901213803 | 88 | 61 | 2.0 | 5.0 | 0.00 | 0.00 | 0.00 | 72 | 1012.1 |
| 20260901213703 | 88 | 61 | 2.0 | 5.0 | 0.00 | 0.00 | 0.00 | 72 | 1012.1 |
| 20260901213603 | 88 | 61 | 2.0 | 5.0 | 0.00 | 0.00 | 0.00 | 72 | 1012.1 |
| 20260901213504 | 88 | 61 | 2.0 | 5.0 | 0.00 | 0.00 | 0.00 | 72 | 1012.1 |
| 20260901213332 | 88 | 59 | 2.0 | 5.0 | 0.00 | 0.00 | 0.00 | 71 | 1012.1 |
| 20260901213232 | 88 | 59 | 2.0 | 5.0 | 0.00 | 0.00 | 0.00 | 70 | 1012.1 |
| 20260901213127 | 88 | 59 | 2.0 | 5.0 | 0.00 | 0.00 | 0.00 | 70 | 1012.0 |
| 20260901213024 | 88 | 61 | 1.0 | 4.0 | 0.00 | 0.00 | 0.00 | 70 | 1012.1 |